GEFSMW_850_meantemp_096.txt.gz
Temperature
13 15 16 16 16 16 16 15 15 14 13 13 12 11 11 10 10 10 9 9 9 8 8 8 8 7 7 7 7 6 6 6 6 5 5 5 5 6 7 7 8 8 8
13 14 15 15 16 16 15 15 14 14 13 12 12 11 11 10 10 10 10 9 9 9 8 8 8 7 7 7 7 7 6 6 5 5 4 4 5 6 5 6 7 8 8
13 14 14 15 15 15 14 14 14 13 13 12 12 12 11 11 11 10 10 10 9 9 9 8 8 8 7 7 7 7 6 6 5 4 4 3 5 5 5 5 5 5 6
13 13 14 14 14 14 14 13 13 13 12 12 12 11 11 11 10 10 10 10 9 9 9 8 8 8 7 7 7 7 6 6 5 4 4 4 3 3 4 4 4 4 4
12 13 13 13 13 13 13 13 12 12 12 12 11 11 11 10 10 10 10 9 9 9 9 8 8 8 7 7 7 7 6 5 5 5 4 3 3 2 1 2 4 4 4
12 12 13 13 13 12 12 12 12 12 11 11 11 10 10 10 9 9 9 9 8 8 8 8 7 7 7 7 7 6 6 5 5 5 4 3 2 2 1 1 2 3 3
12 11 12 12 12 12 12 11 11 11 11 10 10 10 9 9 8 8 8 8 7 7 7 7 7 6 6 6 6 6 6 5 5 4 4 3 3 2 1 1 1 2 2
11 11 11 11 11 11 11 11 11 10 10 10 9 9 8 8 7 7 7 7 6 6 6 6 6 6 6 6 5 5 5 5 4 4 4 3 3 2 1 1 0 0 1
11 11 11 11 11 11 11 10 10 10 9 9 8 8 8 7 7 6 6 6 6 6 6 6 5 5 5 5 5 4 4 4 3 3 3 2 2 2 1 0 -0 -1 -1
10 10 10 10 10 10 10 10 9 9 9 8 8 7 7 6 6 6 6 5 5 5 5 5 5 5 5 4 4 4 3 3 2 2 1 1 1 1 0 -0 -1 -1 -2
10 10 10 10 10 10 9 9 9 8 8 7 7 6 6 6 5 5 5 5 5 4 4 4 4 4 4 3 3 3 2 1 1 1 0 0 0 -0 -1 -1 -1 -2 -2
10 9 9 9 9 9 9 8 8 7 7 6 6 6 5 5 5 5 4 4 4 4 4 3 3 3 3 2 2 1 1 0 0 -0 -0 -1 -1 -1 -1 -2 -2 -2 -2
9 9 9 9 8 8 8 7 7 6 6 6 5 5 5 4 4 4 4 4 3 3 3 2 2 2 2 1 1 1 0 -0 -0 -1 -1 -1 -2 -2 -2 -2 -2 -2 -3
8 8 8 8 8 7 7 6 6 6 5 5 4 4 4 4 4 3 3 3 3 2 2 2 1 1 1 1 0 -0 -0 -1 -1 -1 -2 -2 -2 -2 -3 -3 -3 -3 -3
8 8 7 7 7 6 6 6 5 5 5 4 4 4 3 3 3 3 3 2 2 2 1 1 1 0 -0 -0 -1 -1 -2 -2 -2 -2 -3 -3 -3 -3 -3 -3 -3 -3 -3
7 7 7 7 6 6 5 5 4 4 4 4 4 3 3 3 3 2 2 2 1 1 0 -0 -1 -1 -1 -1 -2 -2 -3 -3 -3 -3 -3 -3 -3 -3 -3 -3 -3 -3 -3
7 7 6 6 5 5 4 4 4 4 4 3 3 3 2 2 2 1 1 1 0 -0 -1 -1 -2 -2 -2 -2 -3 -3 -4 -4 -4 -4 -4 -4 -4 -4 -4 -3 -3 -3 -3
6 6 6 5 4 4 4 4 3 3 3 3 3 2 2 1 1 0 0 -0 -1 -1 -2 -2 -3 -3 -3 -3 -4 -4 -4 -4 -4 -4 -4 -4 -4 -4 -4 -4 -4 -4 -4
6 5 5 4 4 4 3 3 3 3 2 2 2 1 1 0 -0 -0 -1 -1 -2 -2 -3 -3 -3 -4 -3 -4 -4 -5 -5 -5 -5 -5 -4 -4 -4 -4 -4 -4 -4 -4 -4
5 5 4 4 3 3 3 3 2 2 2 1 1 1 0 -0 -1 -1 -2 -2 -3 -3 -3 -4 -4 -4 -4 -4 -5 -5 -5 -5 -5 -5 -5 -5 -4 -4 -4 -4 -4 -4 -4
4 4 4 3 3 3 2 2 2 1 1 1 0 0 -0 -1 -1 -2 -2 -3 -3 -4 -4 -5 -5 -5 -5 -5 -5 -5 -5 -5 -5 -5 -5 -5 -5 -5 -4 -4 -4 -4 -4
4 3 3 3 3 2 2 1 1 1 0 0 -0 -0 -1 -1 -2 -3 -3 -3 -4 -5 -5 -5 -6 -6 -6 -6 -6 -5 -5 -5 -5 -5 -5 -5 -5 -5 -5 -4 -4 -4 -4
3 3 3 3 2 2 1 1 1 0 -0 -0 -1 -1 -2 -2 -3 -3 -4 -4 -5 -5 -6 -6 -6 -6 -6 -6 -6 -6 -6 -6 -5 -5 -5 -5 -5 -5 -5 -5 -5 -5 -5
3 2 2 2 2 2 1 1 0 -0 -1 -1 -1 -2 -3 -3 -3 -4 -5 -5 -6 -6 -6 -6 -6 -6 -6 -6 -6 -6 -6 -6 -5 -5 -5 -5 -5 -5 -5 -5 -5 -5 -5
2 2 2 1 1 1 1 0 -0 -1 -1 -2 -2 -3 -3 -4 -4 -5 -5 -6 -6 -6 -7 -7 -6 -6 -6 -6 -6 -6 -6 -6 -6 -6 -5 -5 -5 -6 -6 -6 -6 -6 -6
2 2 1 1 1 0 0 -0 -1 -1 -2 -2 -3 -3 -4 -4 -5 -5 -6 -6 -6 -6 -7 -7 -7 -7 -6 -6 -6 -6 -6 -6 -6 -6 -6 -6 -6 -6 -6 -6 -6 -6 -6

GEFSMW_850_meantemp_102.txt.gz
Temperature
14 14 14 14 14 14 13 13 13 12 11 11 10 10 10 10 10 10 10 9 9 9 9 8 8 8 8 8 7 7 7 6 6 6 6 6 7 7 8 8 8 8 8
14 13 13 13 13 13 13 13 13 12 12 11 11 10 10 10 10 10 10 9 9 9 9 8 8 8 8 8 7 7 6 6 6 5 5 4 5 7 7 7 7 7 7
14 13 13 13 13 13 13 13 13 12 12 12 11 11 11 10 10 10 10 9 9 9 8 8 8 8 8 7 7 7 6 6 6 5 4 4 4 5 5 6 6 6 6
14 13 13 13 13 13 13 13 13 12 12 12 12 11 11 10 10 9 9 9 9 8 8 8 8 7 7 7 7 6 6 5 5 5 5 4 4 3 3 4 5 5 5
13 13 13 13 13 13 13 13 13 12 12 12 11 11 10 10 9 9 9 9 8 8 8 7 7 7 7 7 6 6 6 5 5 5 4 4 3 3 2 2 3 4 5
13 13 13 13 13 13 13 12 12 12 12 11 11 11 10 10 9 9 8 8 8 7 7 7 7 6 6 6 6 5 5 5 5 4 4 4 3 3 3 2 2 2 3
13 12 12 12 12 12 12 12 12 11 11 11 10 10 10 9 9 8 8 8 7 7 6 6 6 6 6 5 5 5 5 5 4 4 4 4 3 3 2 2 2 2 2
13 12 12 12 12 12 11 11 11 11 11 10 10 9 9 9 8 8 7 7 7 6 6 6 6 6 5 5 5 5 4 4 4 4 3 3 3 2 2 1 1 1 1
13 12 12 11 11 11 11 11 11 10 10 10 9 9 9 8 8 7 7 6 6 6 6 5 5 5 5 5 4 4 4 3 3 3 2 2 2 1 1 1 1 0 -0
13 12 11 11 11 10 10 10 10 10 10 9 9 8 8 7 7 7 6 6 6 5 5 5 5 5 4 4 4 3 3 3 2 2 2 1 1 1 0 0 -0 -0 -1
13 12 11 11 10 10 10 10 9 9 9 8 8 8 7 7 6 6 6 5 5 5 5 4 4 4 4 3 3 3 2 2 2 1 1 1 0 -0 -0 -1 -1 -1 -1
13 12 11 10 10 9 9 9 9 8 8 8 7 7 6 6 6 6 5 5 5 5 4 4 4 3 3 3 2 2 1 1 1 0 -0 -0 -1 -1 -1 -1 -2 -2 -2
13 12 11 10 9 9 8 8 8 8 7 7 7 6 6 6 5 5 5 5 4 4 4 3 3 3 2 2 2 1 0 -0 -0 -1 -1 -2 -2 -2 -2 -2 -3 -3 -3
12 11 10 9 9 8 8 7 7 7 7 6 6 6 5 5 5 4 4 4 4 3 3 3 2 2 2 1 1 -0 -1 -1 -1 -2 -2 -3 -3 -3 -3 -3 -3 -3 -3
11 11 10 9 8 8 7 7 7 6 6 6 6 5 5 5 4 4 4 3 3 3 2 2 2 1 1 0 -0 -1 -2 -2 -2 -2 -3 -3 -4 -4 -4 -4 -4 -4 -4
11 10 9 8 8 7 7 6 6 6 6 5 5 5 4 4 4 3 3 3 2 2 2 1 1 0 0 -0 -1 -2 -2 -3 -3 -3 -4 -4 -4 -4 -4 -4 -4 -4 -4
10 9 8 8 7 7 6 6 6 5 5 5 5 4 4 3 3 3 2 2 1 1 1 0 -0 -0 -0 -1 -2 -3 -3 -4 -4 -4 -4 -5 -5 -5 -5 -5 -4 -4 -4
9 8 8 7 7 6 6 6 5 5 5 4 4 4 3 3 2 2 2 1 1 0 -0 -0 -1 -1 -1 -2 -3 -3 -4 -4 -4 -5 -5 -5 -5 -5 -5 -5 -5 -4 -4
8 8 7 7 6 6 5 5 5 4 4 4 3 3 2 2 1 1 1 0 -0 -0 -1 -1 -2 -2 -2 -3 -3 -4 -5 -5 -5 -5 -5 -5 -5 -5 -5 -5 -5 -4 -4
7 7 6 6 6 5 5 4 4 4 4 3 3 2 2 1 1 0 0 -0 -1 -1 -2 -2 -2 -3 -3 -4 -4 -5 -5 -5 -5 -5 -5 -5 -5 -5 -5 -5 -5 -5 -4
7 6 6 5 5 4 4 4 4 3 3 2 2 2 1 1 0 -0 -1 -1 -2 -2 -2 -3 -3 -3 -4 -4 -5 -5 -5 -5 -5 -5 -5 -5 -5 -5 -5 -5 -5 -5 -4
6 5 5 5 4 4 4 3 3 2 2 2 1 1 1 0 -0 -1 -1 -1 -2 -3 -3 -3 -3 -4 -4 -5 -5 -6 -6 -6 -6 -6 -6 -6 -6 -5 -5 -5 -5 -5 -5
5 5 5 4 4 4 3 3 2 2 1 1 1 1 0 -0 -1 -1 -2 -2 -3 -3 -3 -4 -4 -4 -5 -5 -6 -6 -6 -6 -6 -6 -6 -6 -6 -6 -6 -5 -5 -5 -5
5 4 4 4 4 3 3 2 2 1 1 0 0 -0 -1 -1 -1 -2 -2 -3 -3 -4 -4 -5 -5 -5 -5 -6 -6 -6 -6 -6 -6 -6 -6 -6 -6 -6 -6 -6 -6 -6 -6
4 4 4 3 3 3 2 2 1 1 0 -0 -0 -1 -1 -2 -2 -2 -3 -3 -4 -4 -5 -5 -5 -6 -6 -6 -6 -6 -6 -6 -6 -6 -6 -6 -6 -6 -6 -6 -6 -6 -6
4 3 3 3 2 2 2 1 1 0 -1 -1 -1 -1 -2 -2 -3 -3 -3 -3 -4 -5 -5 -5 -6 -6 -6 -6 -6 -6 -7 -6 -6 -6 -6 -7 -7 -7 -7 -7 -7 -7 -7

GEFSMW_850_meantemp_108.txt.gz
Temperature
15 15 15 15 15 14 14 13 13 12 12 11 11 10 10 10 10 9 9 9 9 9 8 8 8 8 7 7 7 7 7 6 6 6 6 6 7 7 7 7 7 7 7
14 14 14 14 14 14 14 13 13 12 12 11 11 10 10 10 10 9 9 9 9 9 8 8 8 8 7 7 7 6 6 6 6 5 4 4 5 5 5 6 6 6 6
14 14 14 14 14 14 13 13 13 12 11 11 11 10 10 10 9 9 9 9 9 9 8 8 8 7 7 7 6 6 6 5 5 5 4 3 3 3 4 4 5 5 5
14 14 14 13 13 13 13 13 12 12 12 11 11 11 10 10 10 10 9 9 9 8 8 8 7 7 7 6 6 6 5 5 5 5 4 4 3 2 2 3 3 3 4
14 14 14 13 13 13 13 12 12 12 12 11 11 11 11 10 10 10 9 9 8 8 8 7 7 7 6 6 6 5 5 5 5 4 4 4 3 3 2 1 2 3 3
14 14 13 13 12 12 12 12 12 12 12 11 11 11 10 10 10 9 9 9 8 8 7 7 7 6 6 6 5 5 5 5 4 4 4 3 2 2 2 1 1 1 2
13 13 13 13 12 12 12 12 12 12 11 11 11 11 10 10 9 9 9 8 8 7 7 7 6 6 6 5 5 5 5 4 4 4 3 3 2 2 1 1 0 0 0
13 14 13 13 13 12 12 12 12 12 11 11 11 10 10 9 9 8 8 8 7 7 6 6 6 5 5 5 5 4 4 4 3 3 3 2 2 2 1 0 -0 -1 -1
13 14 13 13 13 12 12 12 11 11 11 10 10 10 9 9 8 8 7 7 7 6 6 6 5 5 5 5 4 4 4 3 3 3 2 2 2 1 1 -0 -1 -2 -2
13 13 13 13 13 12 12 11 11 11 10 10 10 9 9 8 8 7 7 7 6 6 5 5 5 5 5 4 4 4 3 3 3 2 2 1 1 0 0 -0 -1 -2 -3
13 13 13 13 12 12 11 11 10 10 10 9 9 8 8 8 7 7 6 6 6 5 5 5 5 4 4 4 3 3 3 2 2 2 1 1 0 -0 -1 -1 -2 -2 -3
14 13 13 12 12 11 11 10 10 9 9 9 8 8 7 7 7 6 6 6 5 5 4 4 4 4 3 3 3 2 2 2 1 1 0 0 -1 -1 -2 -2 -2 -3 -3
13 13 12 12 11 11 10 10 9 9 9 8 8 7 7 6 6 6 5 5 5 4 4 4 3 3 3 2 2 1 1 1 1 0 -0 -1 -1 -2 -2 -3 -3 -3 -4
13 13 12 12 11 10 10 9 9 9 8 8 7 7 6 6 6 5 5 4 4 4 3 3 3 2 2 2 1 1 1 0 -0 -0 -1 -2 -2 -3 -3 -4 -4 -4 -4
13 13 12 11 11 10 9 9 9 8 8 7 7 6 6 5 5 5 4 4 3 3 3 3 2 2 2 1 1 0 -1 -1 -1 -1 -2 -2 -3 -4 -4 -4 -4 -5 -5
13 13 12 11 11 10 9 9 8 8 7 7 6 6 5 5 5 4 4 3 3 3 2 2 2 1 1 0 -0 -1 -2 -2 -2 -2 -2 -3 -3 -4 -4 -5 -5 -5 -5
13 12 12 11 11 10 9 8 8 7 7 6 6 5 5 4 4 4 3 3 2 2 2 1 1 1 1 -0 -1 -1 -2 -2 -3 -3 -3 -4 -4 -4 -5 -5 -5 -5 -5
13 12 11 11 10 9 8 8 7 7 6 6 5 5 4 4 3 3 3 2 2 1 1 1 1 0 0 -1 -1 -2 -3 -3 -3 -3 -4 -4 -4 -5 -5 -5 -5 -5 -5
13 12 11 10 9 9 8 7 7 6 6 5 5 4 4 3 3 2 2 2 1 1 1 0 -0 -0 -1 -1 -2 -3 -3 -3 -3 -4 -4 -5 -5 -5 -6 -6 -5 -5 -5
11 11 10 9 9 8 7 6 6 5 5 5 4 4 3 3 2 2 1 1 0 0 -0 -0 -1 -1 -1 -2 -2 -3 -4 -4 -4 -5 -5 -5 -6 -6 -6 -6 -6 -6 -5
10 10 9 8 8 7 6 6 5 5 4 4 4 3 3 2 2 1 1 0 -0 -0 -1 -1 -1 -1 -2 -2 -3 -4 -5 -5 -5 -6 -6 -6 -6 -6 -6 -6 -6 -6 -6
9 9 8 7 7 6 6 5 5 4 4 3 3 2 2 2 1 1 0 -0 -1 -1 -1 -1 -1 -1 -2 -3 -3 -4 -5 -6 -6 -6 -6 -6 -6 -6 -6 -6 -6 -6 -6
8 7 7 6 6 5 5 5 4 3 3 3 2 2 2 1 1 0 -0 -1 -1 -2 -2 -2 -2 -2 -3 -3 -4 -5 -5 -6 -6 -6 -6 -6 -6 -6 -6 -6 -6 -6 -6
7 6 6 6 5 5 4 4 3 3 2 2 2 1 1 1 0 -0 -1 -1 -2 -2 -3 -3 -4 -4 -4 -4 -5 -5 -6 -6 -6 -6 -6 -6 -6 -6 -6 -7 -7 -7 -7
6 6 5 5 4 4 4 3 2 2 2 1 1 1 0 -0 -1 -1 -1 -2 -2 -3 -4 -4 -4 -5 -5 -5 -6 -6 -6 -6 -6 -6 -6 -7 -7 -7 -7 -7 -7 -7 -7
5 5 4 4 4 3 3 2 2 1 1 1 1 0 -0 -1 -1 -2 -2 -2 -3 -3 -4 -4 -5 -5 -6 -6 -6 -6 -7 -7 -7 -7 -7 -7 -7 -7 -8 -8 -8 -8 -8

GEFSMW_850_meantemp_114.txt.gz
Temperature
16 16 16 16 16 16 15 15 14 13 12 12 11 11 10 10 10 10 9 9 9 9 9 8 8 8 8 7 7 7 7 7 6 6 6 7 7 7 7 7 7 7 6
16 16 16 16 15 15 15 14 14 13 12 12 11 11 10 10 10 10 9 9 9 9 9 8 8 8 7 7 7 7 6 6 6 5 5 5 6 5 6 6 6 6 6
16 16 15 15 15 15 14 14 13 13 12 11 11 11 10 10 10 9 9 9 9 9 8 8 8 8 7 7 7 6 6 6 5 5 4 4 3 3 4 5 5 5 5
16 15 15 15 15 14 14 13 13 12 12 11 11 11 10 10 10 9 9 9 9 8 8 8 8 7 7 7 6 6 6 5 5 5 4 4 3 2 2 3 4 4 4
15 15 15 15 14 14 13 13 13 12 12 11 11 11 10 10 10 10 9 9 9 8 8 8 8 7 7 7 6 6 6 5 5 5 4 4 3 3 2 2 3 4 4
14 14 14 14 14 13 13 13 13 12 12 11 11 11 10 10 10 10 9 9 9 8 8 8 7 7 7 6 6 6 5 5 5 4 4 3 3 3 1 1 1 2 3
14 14 14 14 13 13 13 13 13 12 12 11 11 11 10 10 10 10 9 9 9 8 8 7 7 7 6 6 6 5 5 5 4 4 4 3 3 2 1 1 0 0 1
14 14 14 14 13 13 13 13 12 12 12 11 11 11 10 10 10 9 9 9 8 8 7 7 7 6 6 6 5 5 5 4 4 4 3 3 3 2 1 1 -0 -1 -1
14 14 14 14 13 13 13 13 12 12 12 11 11 10 10 10 10 9 9 8 8 7 7 7 6 6 5 5 5 5 4 4 4 3 3 3 2 2 1 0 -1 -2 -3
13 14 14 14 13 13 13 12 12 12 11 11 11 10 10 9 9 9 8 8 7 7 7 6 6 5 5 5 4 4 4 3 3 3 2 2 2 1 1 0 -0 -2 -3
14 14 14 14 13 13 12 12 12 11 11 11 10 10 9 9 9 8 8 7 7 7 6 6 5 5 5 4 4 4 3 3 3 2 2 2 1 1 1 -0 -1 -1 -2
14 14 14 13 13 13 12 12 12 11 11 10 10 9 9 9 8 8 7 7 7 6 6 5 5 4 4 4 3 3 3 2 2 2 1 1 1 0 -0 -1 -1 -2 -2
14 14 13 13 13 13 12 12 11 11 10 10 9 9 9 8 8 7 7 6 6 6 5 5 4 4 4 3 3 2 2 2 2 1 1 1 0 -0 -1 -1 -2 -2 -3
15 14 14 14 13 13 12 12 11 11 10 9 9 9 8 8 7 7 6 6 6 5 5 4 4 3 3 3 2 2 2 1 1 1 0 -0 -1 -1 -2 -2 -2 -3 -4
14 14 14 14 13 13 12 11 11 10 10 9 9 8 8 7 7 6 6 6 5 5 4 4 3 3 2 2 2 1 1 1 0 0 -0 -1 -1 -2 -2 -3 -4 -4 -4
15 15 14 14 13 13 12 11 11 10 9 9 8 8 7 7 6 6 6 5 5 4 4 3 3 2 2 2 1 1 0 -0 -0 -1 -1 -1 -2 -2 -2 -3 -4 -4 -5
15 15 14 14 13 13 12 11 11 10 9 8 8 7 7 6 6 5 5 5 4 4 3 3 2 2 2 1 1 0 -0 -1 -1 -1 -1 -2 -2 -3 -3 -3 -4 -4 -5
15 14 14 13 13 12 11 11 10 9 8 8 7 7 6 6 5 5 5 4 3 3 3 2 2 2 1 1 0 -0 -1 -1 -1 -1 -2 -2 -3 -3 -4 -4 -4 -5 -5
14 14 13 13 12 12 11 10 9 8 8 7 7 6 6 5 5 5 4 3 3 3 2 2 2 1 1 1 -0 -1 -1 -1 -1 -2 -2 -3 -3 -4 -5 -5 -5 -5 -5
13 13 13 12 12 11 10 9 8 8 7 7 6 6 5 5 4 4 3 3 2 2 2 1 1 1 0 0 -0 -1 -2 -2 -2 -2 -3 -3 -4 -5 -5 -5 -6 -6 -6
12 12 12 11 11 10 9 8 8 7 7 6 6 5 5 4 4 3 3 2 2 1 1 1 1 0 0 -0 -1 -1 -2 -3 -3 -3 -4 -4 -5 -5 -5 -6 -6 -6 -6
11 11 11 10 9 9 8 8 7 7 6 5 5 5 4 4 3 2 2 2 1 1 1 0 0 0 -0 -1 -1 -2 -3 -4 -4 -4 -4 -5 -5 -6 -6 -6 -6 -6 -6
10 10 10 9 8 8 7 7 6 6 5 5 4 4 3 3 2 2 2 1 1 0 -0 -1 -1 -1 -1 -2 -2 -3 -3 -4 -5 -5 -5 -5 -6 -6 -6 -6 -6 -7 -7
9 9 8 8 8 7 6 6 5 5 4 4 4 3 3 2 2 1 1 0 0 -0 -1 -1 -2 -2 -2 -2 -3 -4 -4 -5 -5 -5 -5 -6 -6 -6 -6 -6 -6 -7 -7
8 8 7 7 7 6 5 5 4 4 4 3 3 2 2 2 1 1 0 -0 -1 -1 -2 -2 -3 -3 -3 -3 -4 -5 -5 -6 -6 -6 -6 -6 -6 -7 -7 -7 -7 -7 -7
8 7 6 6 5 5 5 4 4 3 3 2 2 2 1 1 0 -0 -0 -1 -1 -2 -2 -3 -4 -4 -4 -5 -5 -6 -6 -6 -6 -6 -7 -7 -7 -7 -7 -8 -8 -8 -8

GEFSMW_850_meantemp_120.txt.gz
Temperature
17 17 17 17 17 16 16 15 14 14 13 12 11 11 11 11 10 10 10 10 9 9 9 9 9 9 8 8 8 7 7 7 7 7 7 7 7 7 7 7 6 6 6
16 16 17 17 16 16 16 15 14 14 13 12 12 11 11 11 10 10 10 10 10 9 9 9 9 9 8 8 8 7 7 7 6 6 6 6 7 6 6 6 6 6 6
16 16 16 16 16 16 15 15 14 14 13 12 12 11 11 10 10 10 10 10 10 9 9 9 9 9 8 8 8 7 7 6 6 6 5 5 6 5 5 5 5 5 5
16 15 15 16 16 16 15 15 14 14 13 12 12 11 11 10 10 10 10 10 9 9 9 9 9 8 8 8 8 7 7 6 6 5 5 4 4 3 4 4 4 4 4
15 14 15 16 16 15 15 14 14 13 13 12 11 11 10 10 10 10 10 10 9 9 9 9 9 8 8 8 7 7 7 6 6 5 5 4 3 3 2 3 3 3 4
14 14 14 15 15 15 14 14 14 13 13 12 11 11 10 10 10 10 10 10 9 9 9 9 9 8 8 7 7 7 6 6 6 5 4 4 3 2 2 2 2 2 3
13 13 13 14 14 14 14 14 13 13 12 12 11 11 10 10 10 10 10 10 9 9 9 9 8 8 8 7 7 6 6 6 5 5 4 4 3 3 2 1 1 1 2
13 13 13 14 14 14 14 13 13 13 12 12 11 11 11 10 10 10 10 10 9 9 9 9 8 8 7 7 6 6 6 5 5 5 4 4 3 3 2 1 0 -0 0
13 13 13 13 14 14 14 13 13 13 12 12 11 11 11 10 10 10 10 10 9 9 9 8 8 7 7 7 6 6 5 5 5 4 4 4 3 3 2 1 0 -1 -1
13 13 13 13 13 14 13 13 13 13 12 12 11 11 11 11 10 10 10 10 9 9 8 8 7 7 7 6 6 5 5 5 4 4 4 3 3 2 2 1 1 -1 -2
13 13 13 13 13 13 13 13 12 12 12 12 11 11 11 10 10 10 10 9 9 8 8 8 7 7 6 6 5 5 5 4 4 3 3 3 2 2 1 1 0 -0 -1
15 14 13 13 13 13 13 13 12 12 12 12 11 11 10 10 10 10 9 9 8 8 8 7 7 6 6 5 5 4 4 4 3 3 3 2 2 1 1 0 -0 -1 -2
15 14 14 14 14 13 13 13 12 12 12 11 11 11 10 10 10 9 9 8 8 8 7 7 6 6 5 5 4 4 4 3 3 2 2 2 1 1 0 -0 -1 -1 -2
15 15 15 14 14 13 13 13 12 12 12 11 11 10 10 10 9 9 8 8 8 7 7 6 6 6 5 5 4 4 3 3 2 2 2 1 1 0 -0 -1 -1 -2 -2
15 15 15 14 14 13 13 13 12 12 11 11 10 10 10 9 9 8 8 8 7 7 6 6 6 5 5 4 4 3 3 2 2 2 1 1 1 0 -0 -1 -2 -2 -3
14 15 15 14 14 14 13 13 12 12 11 11 10 10 9 9 8 8 7 7 7 6 6 5 5 5 4 4 3 3 2 2 1 1 1 0 0 -0 -1 -1 -2 -2 -3
15 15 15 15 14 14 13 13 12 12 11 11 10 10 9 8 8 7 7 7 6 6 5 5 5 4 4 3 3 2 2 1 1 0 0 -0 -0 -1 -1 -1 -2 -2 -3
15 15 15 14 14 13 13 12 12 11 11 10 10 9 9 8 7 7 6 6 6 5 5 4 4 4 3 3 2 2 1 1 0 0 -0 -1 -1 -1 -2 -2 -3 -3 -3
14 14 14 14 13 13 12 12 11 11 10 10 9 9 8 7 7 6 6 5 5 5 4 4 3 3 3 2 2 1 1 0 -0 -0 -1 -1 -1 -2 -2 -3 -4 -4 -4
14 14 13 13 12 12 12 11 11 10 10 9 9 8 7 7 6 6 5 5 4 4 4 3 3 2 2 2 1 1 -0 -1 -1 -1 -2 -2 -2 -2 -3 -4 -4 -5 -5
13 13 13 12 12 11 11 11 10 10 9 8 8 7 7 6 6 5 5 4 4 3 3 2 2 2 2 1 1 0 -1 -1 -2 -2 -2 -3 -3 -3 -4 -4 -5 -5 -5
12 12 12 11 11 11 10 10 9 9 8 8 7 6 6 5 5 4 4 3 3 3 2 2 1 1 1 0 0 -0 -1 -2 -2 -3 -3 -3 -4 -4 -5 -5 -5 -5 -5
12 11 11 11 10 10 9 9 9 8 7 7 6 6 5 5 4 4 3 3 2 2 1 1 0 0 -0 -1 -1 -1 -2 -2 -3 -3 -3 -4 -4 -5 -5 -5 -5 -6 -6
11 10 10 10 9 9 8 8 7 7 7 6 5 5 4 4 4 3 3 2 2 1 1 0 -0 -1 -1 -2 -2 -2 -3 -3 -3 -4 -4 -5 -5 -5 -5 -6 -6 -6 -7
10 10 9 9 8 8 8 7 7 6 6 5 5 4 4 3 3 2 2 1 1 1 -0 -1 -1 -2 -2 -2 -3 -3 -4 -4 -5 -5 -5 -6 -6 -6 -6 -6 -7 -7 -7
9 9 8 8 7 7 6 6 5 5 5 4 4 3 3 2 2 1 1 1 0 -0 -1 -1 -2 -2 -2 -3 -3 -4 -5 -5 -6 -6 -6 -6 -6 -7 -7 -7 -7 -7 -8

GEFSMW_850_meantemp_126.txt.gz
Temperature
21 20 19 18 18 17 16 15 15 14 13 12 12 12 11 11 11 11 11 11 10 10 10 9 9 9 9 9 9 8 8 8 8 8 8 9 8 8 7 7 7 7 6
21 20 19 18 17 17 16 15 15 14 13 13 12 12 12 11 11 11 11 11 10 10 10 10 9 9 9 9 9 9 8 8 8 7 7 7 8 7 7 7 7 6 6
20 20 19 18 17 16 16 16 15 14 13 13 12 12 11 11 11 11 11 10 10 10 10 10 9 9 9 9 9 8 8 8 7 7 6 6 6 6 7 6 6 6 5
20 19 18 17 17 16 16 15 15 14 13 12 12 12 11 11 11 11 11 10 10 10 10 10 10 9 9 9 9 8 8 8 7 7 6 6 5 5 5 6 6 5 5
19 19 18 17 16 16 15 15 14 14 13 12 12 12 11 11 11 11 11 10 10 10 10 10 10 9 9 9 9 8 8 8 7 7 6 6 5 5 4 4 5 5 5
19 18 17 17 16 15 15 14 14 14 13 12 12 11 11 11 11 10 10 10 10 10 10 10 10 9 9 9 9 8 8 8 7 7 6 6 5 5 4 3 4 5 5
18 17 16 16 15 15 14 14 14 13 13 12 12 11 11 11 11 11 10 10 10 10 10 10 10 9 9 9 9 8 8 7 7 7 6 6 5 5 4 3 3 3 4
17 16 16 15 15 14 14 14 14 13 13 12 12 11 11 11 10 10 10 10 10 10 10 10 10 9 9 9 8 8 8 7 7 6 6 6 5 5 4 3 3 2 2
17 16 15 14 14 14 14 14 14 13 13 12 12 11 11 11 10 10 10 10 10 10 10 10 9 9 9 9 8 8 7 7 7 6 6 5 5 4 4 3 2 1 1
16 16 15 14 14 13 13 13 13 13 13 12 12 11 11 11 10 10 10 10 10 10 10 10 9 9 9 8 8 8 7 7 6 6 6 5 5 4 4 3 2 2 1
16 16 15 14 14 13 13 13 13 12 12 12 12 11 11 11 10 10 10 10 10 10 10 10 9 9 9 8 8 7 7 6 6 6 5 5 4 4 3 3 2 1 1
16 16 15 14 14 13 13 13 12 12 12 12 12 11 11 11 10 10 10 10 10 10 10 9 9 9 8 8 8 7 7 6 6 5 5 4 4 3 3 2 2 1 1
16 16 15 14 14 13 13 12 12 12 12 12 11 11 11 11 10 10 10 10 10 10 9 9 9 9 8 8 7 7 6 6 5 5 4 4 3 3 3 2 1 1 0
16 16 15 15 14 13 13 12 12 12 12 11 11 11 11 10 10 10 10 10 10 9 9 9 9 8 8 7 7 6 6 5 5 5 4 4 3 3 2 2 1 1 0
16 16 15 15 14 13 13 12 12 12 11 11 11 11 10 10 10 10 9 9 9 9 9 8 8 8 7 7 6 6 5 5 5 4 4 3 3 2 2 1 1 0 -0
16 16 15 15 14 14 13 12 12 11 11 11 11 10 10 10 9 9 9 9 9 9 8 8 8 7 7 7 6 5 5 4 4 4 3 3 2 2 1 1 0 -0 -1
16 16 15 15 15 14 13 13 12 11 11 10 10 10 9 9 9 9 9 9 8 8 8 7 7 7 6 6 5 5 4 4 3 3 3 2 2 1 1 0 -0 -1 -1
16 16 15 15 14 14 13 12 12 11 10 10 10 9 9 9 9 8 8 8 8 7 7 7 6 6 6 5 5 4 3 3 3 2 2 1 1 1 0 -1 -1 -1 -1
16 15 15 14 14 13 13 12 11 10 10 9 9 9 8 8 8 8 8 7 7 7 6 6 6 5 5 4 4 3 2 2 2 2 1 1 0 -0 -1 -1 -2 -2 -2
15 15 14 14 13 13 12 11 11 10 10 9 9 8 8 8 7 7 7 7 6 6 6 5 5 4 4 4 3 2 2 1 1 1 1 0 -0 -1 -1 -2 -2 -3 -3
14 14 13 13 12 12 11 11 10 10 9 9 8 8 7 7 7 6 6 6 5 5 5 4 4 4 3 3 2 2 1 1 0 0 -0 -1 -1 -2 -2 -3 -3 -3 -4
13 13 13 12 12 11 11 10 9 9 9 8 8 7 7 6 6 6 5 5 5 4 4 4 3 3 2 2 1 1 0 -0 -1 -1 -1 -2 -2 -3 -3 -4 -4 -4 -4
12 12 12 11 11 10 10 10 9 9 8 8 7 7 6 6 5 5 5 4 4 3 3 3 2 2 2 1 1 -0 -1 -1 -1 -2 -2 -3 -3 -3 -4 -4 -4 -5 -5
12 11 11 10 10 10 9 9 8 8 8 7 7 6 6 5 5 4 4 3 3 3 2 2 2 1 1 1 -0 -1 -1 -2 -2 -2 -3 -3 -4 -4 -4 -5 -5 -5 -5
11 11 10 10 9 9 8 8 8 7 7 7 6 6 5 5 4 4 3 3 2 2 1 1 1 0 0 -0 -1 -2 -2 -2 -3 -3 -4 -4 -4 -5 -5 -5 -5 -6 -6
10 10 10 9 9 8 8 7 7 7 6 6 5 5 4 4 3 3 2 2 2 1 1 0 -0 -0 -1 -1 -2 -2 -3 -3 -4 -4 -5 -5 -5 -5 -6 -6 -6 -6 -7

GEFSMW_850_meantemp_132.txt.gz
Temperature
21 21 20 20 19 19 18 17 17 16 15 14 13 12 12 12 12 11 11 11 10 10 10 10 10 9 9 9 9 9 9 9 9 9 9 9 9 8 8 8 7 7 7
20 20 20 20 20 19 18 18 17 16 15 15 14 14 13 12 12 11 11 11 10 10 10 10 10 10 9 9 9 9 9 9 9 9 8 8 8 8 8 7 7 7 7
20 20 20 20 20 19 19 18 17 16 16 15 14 13 12 11 11 11 11 11 11 10 10 10 10 10 10 10 9 9 9 9 9 8 8 8 8 8 7 7 7 7 6
20 20 20 20 20 19 19 18 17 17 16 15 14 13 12 12 12 12 11 11 11 11 10 10 10 10 10 10 9 9 9 9 9 8 8 8 7 7 7 7 7 6 6
20 20 20 20 20 19 18 18 17 16 16 15 14 14 13 13 12 12 11 11 11 10 10 10 10 10 10 10 9 9 9 9 9 8 8 8 7 7 6 6 7 7 7
20 20 19 19 19 18 18 17 17 16 15 15 14 14 13 12 12 11 11 11 11 10 10 10 10 10 10 10 9 9 9 9 9 8 8 7 7 6 6 5 6 6 7
19 19 19 19 18 18 17 17 16 16 15 14 14 13 13 12 12 12 11 11 11 10 10 10 10 10 10 9 9 9 9 9 9 8 8 7 7 6 6 5 5 5 6
19 19 19 19 18 18 17 17 16 16 15 14 14 13 13 12 12 11 11 11 11 11 10 10 10 10 9 9 9 9 9 9 8 8 8 7 7 6 6 5 4 4 4
18 18 18 18 18 17 17 16 16 15 15 14 14 13 13 12 12 11 11 11 11 10 10 10 10 9 9 9 9 9 9 8 8 8 7 7 7 6 5 5 4 3 2
18 18 18 18 17 17 17 16 16 15 15 14 14 13 13 12 11 11 11 10 10 10 10 10 10 9 9 9 9 9 8 8 8 8 7 7 6 6 5 5 4 3 2
18 18 18 17 17 16 16 16 15 15 15 14 13 13 12 12 11 11 11 10 10 10 10 10 9 9 9 9 9 8 8 8 8 7 7 7 6 6 5 5 4 3 2
18 18 18 17 16 16 16 15 15 15 14 14 13 13 12 11 11 11 10 10 10 10 9 9 9 9 9 9 8 8 8 8 7 7 7 6 6 5 5 4 4 3 3
18 17 17 17 17 16 16 15 15 15 14 13 13 12 11 11 11 11 10 10 10 9 9 9 9 9 9 8 8 8 8 7 7 7 6 6 5 5 4 4 3 3 2
18 17 17 17 16 16 16 15 15 14 14 13 12 12 11 11 11 10 10 10 9 9 9 9 9 8 8 8 8 7 7 7 7 6 6 5 5 4 4 3 3 2 2
17 17 17 17 16 16 15 15 14 14 13 12 12 12 11 11 10 10 10 9 9 9 9 8 8 8 8 8 7 7 7 6 6 6 5 5 4 4 3 2 2 1 1
17 17 17 17 16 16 16 15 14 14 13 12 12 11 11 10 10 10 9 9 9 9 8 8 8 8 7 7 7 6 6 6 5 5 5 4 3 3 2 2 1 1 0
17 17 17 17 17 16 16 15 15 13 13 12 12 11 10 10 10 9 9 9 8 8 8 8 7 7 7 7 6 6 5 5 5 4 4 3 3 2 2 1 1 0 -0
17 17 17 17 16 16 15 15 14 13 12 12 11 11 10 9 9 9 8 8 8 8 8 7 7 7 6 6 6 5 5 4 4 3 3 3 2 1 1 0 0 -0 -0
18 17 17 17 16 16 15 14 14 13 12 11 11 10 10 9 9 8 8 8 7 7 7 7 6 6 6 5 5 4 4 3 3 3 2 2 1 1 -0 -0 -1 -1 -1
17 17 16 16 15 15 14 14 13 12 12 11 11 10 9 9 8 8 7 7 7 7 6 6 6 5 5 5 4 3 3 3 2 2 1 1 0 -0 -1 -1 -2 -2 -2
16 16 16 15 15 14 14 13 12 12 11 11 10 9 9 8 8 7 7 6 6 6 5 5 5 5 4 4 3 3 2 2 1 1 1 0 -0 -1 -1 -2 -2 -3 -3
15 15 15 14 14 13 13 12 12 11 11 10 9 9 8 8 7 7 6 6 5 5 5 4 4 4 3 3 2 2 1 1 0 0 -0 -1 -1 -2 -2 -3 -3 -3 -4
15 14 14 14 13 12 12 12 11 10 10 9 9 8 8 7 7 6 6 5 5 4 4 4 3 3 3 2 2 1 1 0 -0 -1 -1 -2 -2 -3 -3 -3 -4 -4 -5
14 14 13 13 12 12 11 11 10 10 9 9 8 7 7 7 6 5 5 4 4 4 3 3 3 2 2 1 1 0 -0 -1 -1 -2 -2 -2 -3 -3 -4 -4 -4 -5 -5
13 13 12 12 11 11 10 10 9 9 8 8 7 7 6 6 5 5 4 4 3 3 2 2 2 1 1 1 -0 -1 -1 -2 -2 -3 -3 -3 -3 -4 -4 -5 -5 -6 -6
12 12 11 11 11 10 10 9 8 8 8 7 7 6 6 5 5 4 4 3 3 2 2 1 1 0 -0 -1 -1 -2 -2 -3 -3 -3 -4 -4 -4 -5 -5 -6 -6 -6 -7

GEFSMW_850_meantemp_138.txt.gz
Temperature
20 20 20 19 19 19 18 18 17 16 15 14 13 13 13 13 12 12 12 11 11 11 10 10 10 9 9 9 9 9 9 9 9 9 9 9 9 8 8 8 8 8 7
20 20 20 20 19 19 18 18 18 17 16 15 15 14 14 13 13 12 12 11 11 11 10 10 10 10 9 9 9 9 9 9 9 8 8 8 8 8 8 8 8 8 7
20 20 20 20 19 19 19 19 18 18 17 16 15 13 12 12 11 12 12 12 11 11 11 10 10 10 10 9 9 9 9 9 9 8 8 8 8 8 8 8 8 8 7
20 20 20 20 20 20 19 19 19 18 17 16 15 14 13 13 13 13 13 12 11 11 11 10 10 10 10 9 9 9 9 9 9 9 8 8 8 8 8 8 8 7 7
20 20 20 20 20 20 19 19 19 18 17 16 16 15 14 14 13 13 12 12 11 11 11 10 10 10 10 10 9 9 9 9 9 9 8 8 8 8 7 7 8 8 7
20 20 20 20 20 19 19 19 18 18 17 16 16 15 15 14 13 13 12 12 11 11 11 10 10 10 10 10 9 9 9 9 9 8 8 8 8 8 7 7 7 7 7
19 19 20 19 19 19 19 19 18 18 17 16 16 15 15 14 14 13 13 12 12 11 11 10 10 10 10 10 9 9 9 9 9 8 8 8 8 7 7 6 6 6 7
19 19 19 19 19 19 19 18 18 18 17 16 16 15 14 14 13 13 13 12 12 12 11 11 10 10 10 10 9 9 9 9 8 8 8 8 7 7 7 6 6 5 6
19 19 19 19 19 19 18 18 18 18 17 16 15 15 14 14 13 13 13 12 12 12 11 11 10 10 10 9 9 9 9 9 8 8 8 8 7 7 6 6 5 5 4
18 19 19 19 19 18 18 18 17 17 17 16 15 15 14 14 13 13 12 12 12 11 11 10 10 10 10 9 9 9 8 8 8 8 8 7 7 7 6 6 5 4 4
19 19 18 18 18 18 18 17 17 16 16 15 15 14 14 13 13 13 12 12 12 11 11 10 10 10 9 9 9 9 8 8 8 8 7 7 7 6 6 5 5 4 4
18 18 18 18 18 17 17 17 17 16 16 15 14 14 14 13 13 12 12 12 11 11 10 10 10 9 9 9 9 8 8 8 8 7 7 7 6 6 6 5 5 4 3
17 18 18 17 17 17 17 17 16 16 15 15 14 14 13 13 12 12 12 11 11 11 10 10 10 9 9 9 8 8 8 8 7 7 7 6 6 6 5 5 4 4 3
17 17 18 17 17 17 17 16 16 15 15 14 14 13 13 12 12 12 11 11 11 10 10 10 9 9 9 8 8 8 8 7 7 7 6 6 6 5 5 4 4 3 2
17 17 18 18 17 17 17 16 16 15 15 14 14 13 13 12 11 11 11 11 10 10 10 9 9 9 9 8 8 8 7 7 7 6 6 6 5 5 4 4 3 2 2
17 17 18 18 17 17 17 16 16 15 14 14 13 13 12 12 11 11 10 10 10 10 9 9 9 9 8 8 8 7 7 7 6 6 6 5 5 4 4 3 2 2 1
18 18 18 18 18 17 17 16 16 15 14 14 13 13 12 11 11 10 10 10 9 9 9 9 8 8 8 8 7 7 7 6 6 5 5 5 4 3 3 2 2 1 1
18 18 18 18 17 17 17 16 15 15 14 13 13 12 11 11 10 10 10 9 9 9 8 8 8 8 8 7 7 6 6 6 5 5 4 4 3 3 2 2 1 1 0
18 18 18 17 17 17 16 16 15 15 14 13 13 12 11 11 10 10 9 9 8 8 8 8 8 7 7 7 6 6 5 5 5 4 4 3 3 2 1 1 1 0 -0
17 17 17 17 17 16 16 15 15 14 14 13 12 12 11 10 10 9 9 8 8 8 8 7 7 7 6 6 5 5 4 4 4 3 3 2 2 1 1 0 -0 -1 -1
16 16 16 16 16 16 15 15 15 14 13 13 12 11 11 10 9 9 8 8 8 7 7 7 6 6 6 5 5 4 4 3 3 3 2 2 1 0 -0 -1 -1 -1 -2
16 16 16 16 15 15 15 15 14 14 13 12 11 11 10 10 9 8 8 8 7 7 6 6 5 5 5 4 4 3 3 2 2 2 1 1 0 -0 -1 -1 -2 -2 -3
15 15 15 15 15 14 14 14 14 13 12 12 11 10 9 9 8 8 8 7 7 6 6 5 5 4 4 4 3 3 2 2 1 1 0 -0 -1 -1 -1 -2 -3 -3 -3
14 14 14 14 14 14 14 13 13 12 12 11 10 9 9 8 8 7 7 6 6 5 5 5 4 4 3 3 3 2 2 1 1 0 -0 -1 -1 -2 -2 -3 -3 -4 -4
13 14 14 14 13 13 13 12 12 11 11 10 10 9 8 8 7 7 6 6 5 5 4 4 4 3 3 2 2 1 1 0 -0 -1 -1 -1 -2 -2 -3 -3 -4 -4 -4
13 13 13 13 13 12 12 12 11 11 10 10 9 8 8 7 6 6 5 5 4 4 3 3 3 2 2 1 1 1 0 -0 -1 -1 -2 -2 -3 -3 -4 -4 -4 -5 -5

GEFSMW_850_meantemp_144.txt.gz
Temperature
19 19 18 18 17 17 16 16 16 16 15 14 14 13 13 13 12 12 12 11 11 11 10 10 10 10 9 9 9 9 9 9 9 9 9 9 9 9 9 9 8 8 8
19 19 18 18 18 18 17 17 16 16 16 15 15 15 14 13 13 12 12 11 11 11 11 10 10 10 10 9 9 9 9 9 9 9 8 8 9 9 9 9 9 8 8
20 19 18 18 18 18 18 18 17 17 16 16 15 14 13 12 12 12 12 12 11 11 11 11 10 10 10 10 9 9 9 9 9 9 8 8 9 8 9 9 9 8 8
19 19 19 18 18 19 19 18 18 17 17 16 14 14 13 13 13 13 13 12 11 11 11 11 10 10 10 10 10 10 9 9 9 9 9 8 8 8 8 8 8 8 8
19 19 19 19 19 19 19 19 18 17 16 16 15 14 14 14 13 12 12 12 11 11 11 11 10 10 10 10 10 10 9 9 9 9 9 9 8 8 8 8 8 8 8
18 19 19 19 19 19 19 18 18 17 16 16 15 15 14 14 13 12 12 12 12 11 11 11 10 10 10 10 10 10 10 9 9 9 9 9 8 8 8 7 7 7 7
18 18 18 18 19 19 19 18 18 17 16 16 15 15 15 14 13 13 13 12 12 12 11 11 11 10 10 10 10 10 9 9 9 9 9 9 8 8 8 7 7 7 7
18 18 18 18 19 19 19 19 18 17 17 16 16 15 14 13 13 13 13 12 12 13 12 11 11 11 10 10 10 10 9 9 9 9 9 9 8 8 8 7 7 6 6
17 18 18 18 19 18 19 19 18 17 17 16 15 15 14 14 13 13 12 12 12 12 12 12 11 11 10 10 10 10 9 9 9 9 9 8 8 8 8 7 7 6 5
17 17 18 18 18 18 18 18 18 17 17 16 15 15 15 14 14 13 12 12 12 12 12 12 11 11 10 10 10 10 9 9 9 9 8 8 8 8 7 7 7 6 5
17 17 17 18 18 18 18 18 17 17 16 15 15 15 14 14 13 13 13 12 12 12 12 12 11 11 10 10 10 9 9 9 9 8 8 8 8 7 7 7 6 6 5
17 17 17 17 17 17 17 17 17 17 16 16 15 15 14 14 13 13 13 12 12 12 12 12 11 11 10 10 9 9 9 9 8 8 8 8 8 7 7 6 6 5 5
15 16 16 17 17 17 17 17 17 16 16 15 15 14 14 13 13 13 12 12 12 12 11 11 11 10 10 10 9 9 9 8 8 8 8 8 7 7 6 6 5 5 5
15 15 16 16 16 17 17 17 16 16 16 15 15 15 14 14 13 12 12 12 12 11 11 11 11 10 10 10 9 9 8 8 8 8 7 7 7 6 6 5 5 4 4
14 15 15 16 16 16 16 16 16 16 15 15 15 15 14 13 13 12 12 11 11 11 11 10 10 10 10 9 9 9 8 8 8 7 7 7 6 6 5 5 4 4 3
14 15 15 15 16 16 16 16 16 16 15 15 15 14 14 13 12 12 11 11 11 10 10 10 9 9 9 9 9 8 8 8 7 7 7 6 6 5 5 4 4 3 3
14 15 15 16 16 16 16 16 16 15 15 15 14 14 13 13 12 11 11 11 10 10 10 9 9 9 9 8 8 8 7 7 7 6 6 6 5 5 4 4 3 3 2
15 15 15 15 16 16 16 16 16 15 15 15 14 14 13 12 12 11 10 10 10 9 9 9 9 8 8 8 8 7 7 7 6 6 5 5 5 4 4 3 3 2 2
15 15 15 16 15 15 15 15 15 15 15 14 14 13 13 12 11 11 10 10 9 9 9 9 8 8 8 7 7 7 6 6 5 5 5 4 4 4 3 3 2 2 1
15 15 15 15 15 15 15 15 15 15 15 14 14 13 12 12 11 11 10 10 9 9 8 8 8 7 7 7 6 6 6 5 5 4 4 4 3 3 2 2 1 1 0
14 14 14 15 15 15 15 15 15 15 15 14 13 12 12 11 11 10 10 9 9 8 8 7 7 7 6 6 6 5 5 4 4 4 3 3 3 2 2 1 1 0 -0
13 14 14 14 14 14 14 14 14 14 14 13 13 12 11 11 10 9 9 9 8 8 7 7 6 6 6 5 5 5 4 4 3 3 3 2 2 1 1 0 -0 -1 -1
12 13 13 14 14 14 14 14 14 14 13 13 12 11 11 10 10 9 9 8 8 7 7 6 6 6 5 5 4 4 4 3 3 2 2 2 1 1 0 -0 -1 -1 -2
11 12 12 13 13 13 13 13 14 13 13 12 11 11 10 10 9 8 8 8 7 7 6 6 6 5 5 4 4 3 3 3 2 2 1 1 0 -0 -1 -1 -2 -2 -3
11 11 12 12 13 13 13 13 13 13 12 12 11 10 10 9 8 8 7 7 7 7 6 6 6 5 4 4 3 3 2 2 1 1 0 -0 -0 -1 -1 -2 -2 -3 -3
10 10 11 11 12 12 12 12 12 12 12 11 10 10 9 8 8 7 7 6 6 6 5 5 5 4 4 3 3 2 2 1 1 0 -0 -1 -1 -2 -2 -3 -3 -4 -4

GEFSMW_850_meantemp_150.txt.gz
Temperature
21 21 20 19 19 18 17 16 16 15 14 14 13 13 13 13 12 12 12 12 12 11 11 11 11 10 10 10 10 10 10 10 9 9 9 9 9 9 10 10 9 9 9
21 21 21 20 19 18 18 17 16 16 15 15 15 14 14 13 13 12 12 12 12 11 11 11 11 11 10 10 10 10 10 10 9 9 9 9 9 9 9 9 9 9 9
22 21 21 20 19 19 18 17 16 16 16 15 14 13 12 12 12 12 12 12 12 11 11 11 11 11 10 10 10 10 10 10 9 9 9 9 9 9 9 9 9 9 9
22 21 21 20 20 19 19 18 17 16 16 15 14 14 13 13 14 14 13 12 12 11 11 11 11 11 10 10 10 10 10 10 10 9 9 9 9 9 9 9 9 9 9
21 21 21 21 20 19 19 18 17 16 16 15 15 14 14 14 14 13 13 12 12 11 11 11 11 11 11 10 10 10 10 10 9 9 9 9 9 9 8 8 9 9 9
21 21 21 21 20 19 19 18 17 16 16 15 15 14 14 14 13 13 13 12 12 12 11 11 11 11 11 10 10 10 10 10 9 9 9 9 9 9 9 8 8 8 8
21 21 21 20 20 19 19 18 17 16 16 15 15 15 14 14 14 14 14 13 12 12 12 11 11 11 11 11 10 10 10 10 9 9 9 9 9 9 9 8 8 8 8
21 20 20 20 20 19 19 18 17 17 16 15 15 15 14 14 14 13 13 13 13 13 13 12 12 11 11 11 10 10 10 9 9 9 9 9 9 9 8 8 8 7 7
20 20 20 20 19 19 19 18 18 17 16 16 15 15 14 14 13 13 13 13 13 13 12 12 12 11 11 10 10 10 10 10 9 9 9 9 9 9 8 8 8 7 7
19 19 19 19 19 19 18 18 17 17 16 16 15 15 14 14 14 13 12 12 12 12 12 12 12 11 11 10 10 10 10 9 9 9 9 9 9 8 8 8 8 7 7
19 19 19 19 19 18 18 18 17 17 16 16 15 14 14 14 13 13 12 12 12 12 12 12 12 11 11 10 10 10 10 9 9 9 9 8 8 8 8 8 7 7 6
18 18 18 18 18 18 18 17 17 16 16 16 15 14 14 13 13 12 12 12 12 12 12 12 11 11 11 10 10 10 10 9 9 9 9 8 8 8 8 7 7 6 6
17 17 17 17 17 17 17 17 17 16 16 15 15 14 14 13 13 12 12 12 12 12 11 11 11 11 10 10 10 10 9 9 9 9 8 8 8 8 7 7 6 6 6
17 16 16 16 16 16 16 16 16 16 16 15 15 14 14 13 13 12 12 12 12 11 11 11 11 11 10 10 10 9 9 9 8 8 8 8 7 7 7 6 6 6 5
15 16 15 15 15 15 15 15 16 16 15 15 15 14 14 13 13 12 12 12 12 11 11 11 11 10 10 10 9 9 9 8 8 8 8 7 7 7 7 6 6 5 5
15 15 15 15 15 15 15 15 15 15 15 15 14 14 13 13 13 12 12 12 12 11 11 11 10 10 10 9 9 9 9 8 8 8 7 7 7 6 6 6 5 5 4
14 14 14 14 14 14 14 14 14 15 14 14 14 14 13 13 13 12 12 12 12 11 11 10 10 9 9 9 9 8 8 8 8 7 7 7 6 6 6 5 5 4 4
13 13 13 14 14 14 14 14 14 14 14 14 14 13 13 13 13 12 12 12 11 11 10 10 9 9 9 9 8 8 8 7 7 7 7 6 6 5 5 5 4 4 3
13 13 13 14 14 14 14 14 13 13 13 13 14 13 13 13 12 12 12 11 11 10 10 9 9 9 8 8 8 8 7 7 7 6 6 6 5 5 4 4 4 3 3
12 13 13 13 13 13 13 13 13 13 13 13 13 13 13 13 12 12 12 11 10 10 9 9 8 8 8 7 7 7 7 6 6 6 5 5 5 4 4 3 3 2 2
12 12 12 12 13 13 13 13 13 13 13 13 13 12 12 12 12 12 11 10 10 9 9 8 8 7 7 7 7 6 6 6 6 5 5 5 4 4 3 3 2 2 1
11 11 11 11 11 12 12 12 12 12 12 12 12 12 12 12 11 11 11 10 9 9 8 8 7 7 7 7 6 6 6 5 5 5 4 4 3 3 2 2 1 1 0
10 10 10 10 11 11 11 11 12 12 12 12 11 12 11 11 11 10 10 9 9 8 8 7 7 7 7 6 6 6 5 5 4 4 3 3 3 2 2 1 1 0 -0
8 9 9 9 10 10 10 11 11 11 11 11 11 11 11 10 10 10 9 9 9 9 8 7 7 6 6 6 5 5 5 4 4 3 3 2 2 2 1 1 0 -0 -1
7 8 8 9 9 9 10 10 10 10 10 10 10 10 10 10 9 9 9 9 9 9 9 8 7 7 6 6 5 5 4 4 3 3 2 2 1 1 1 -0 -1 -1 -2
7 7 8 8 8 9 9 9 10 10 10 10 10 10 9 9 9 8 8 7 8 7 7 7 7 6 6 5 5 4 4 3 2 2 2 1 1 0 -0 -1 -1 -2 -2

GEFSMW_850_meantemp_156.txt.gz
Temperature
19 18 18 17 17 17 16 16 16 15 15 14 14 13 13 13 13 13 13 13 12 12 12 12 11 11 11 11 10 10 10 10 10 9 9 9 10 10 10 10 10 10 9
18 18 18 17 17 17 17 16 16 16 15 15 15 15 14 13 13 13 13 12 12 12 12 12 11 11 11 10 10 10 10 10 9 9 9 9 9 9 9 9 9 9 9
18 18 18 18 18 17 17 17 17 16 16 15 15 14 13 12 12 12 12 12 12 12 12 12 11 11 11 11 10 10 10 10 10 9 9 9 9 9 9 9 9 9 9
18 18 18 18 18 18 18 18 17 17 16 15 14 14 14 13 14 14 13 13 12 12 12 11 11 11 11 11 10 10 10 10 10 9 9 9 9 9 9 9 9 9 9
18 19 19 19 19 19 18 18 18 17 17 16 15 15 15 15 14 14 13 13 12 12 12 11 11 11 11 11 10 10 10 10 10 10 9 9 9 9 9 9 9 9 9
18 19 19 19 19 19 19 18 18 17 17 16 16 15 15 15 14 14 13 13 13 12 12 12 11 11 11 11 11 10 10 10 10 10 9 9 9 9 9 9 9 9 9
18 18 19 19 19 19 18 18 18 18 17 16 16 16 16 15 15 15 14 14 13 13 13 12 12 11 11 11 11 10 10 10 10 10 9 9 9 9 9 8 8 8 8
18 18 19 19 19 19 19 18 18 18 17 17 16 16 16 15 15 15 14 14 14 14 14 13 12 11 11 11 10 10 10 10 10 9 9 9 9 9 8 8 8 8 8
17 18 18 19 19 19 19 18 18 18 18 17 17 16 16 15 15 15 14 14 14 14 13 13 12 11 11 11 10 10 10 10 10 9 9 9 9 8 8 8 8 7 7
16 17 18 18 18 19 19 18 18 18 18 18 17 16 16 16 15 15 14 14 14 13 13 13 12 11 11 10 10 10 10 10 9 9 9 9 9 8 8 8 8 7 7
16 16 17 17 18 18 18 18 18 18 18 17 17 17 16 16 15 14 14 14 14 13 13 12 12 11 11 10 10 10 10 9 9 9 9 9 8 8 8 8 7 7 7
15 15 16 17 17 17 18 18 17 17 17 17 17 17 16 16 15 15 14 14 13 13 13 12 12 11 11 10 10 10 10 9 9 9 9 8 8 8 8 7 7 7 6
14 14 15 15 16 17 17 17 17 17 17 17 16 16 15 15 15 15 14 13 13 13 12 12 11 11 11 10 10 10 10 9 9 9 9 8 8 8 7 7 7 7 6
12 13 14 14 15 16 16 16 17 17 16 16 16 16 15 15 15 14 14 13 13 12 12 12 11 11 11 10 10 10 9 9 9 9 8 8 8 7 7 7 6 6 6
11 12 13 14 14 15 15 16 16 16 16 16 15 15 15 15 14 14 13 13 12 12 12 11 11 11 10 10 10 10 9 9 9 8 8 8 7 7 7 6 6 6 5
10 11 12 13 13 14 14 15 15 15 15 15 15 15 15 14 14 14 13 13 12 12 11 11 11 10 10 10 10 9 9 9 8 8 8 7 7 7 6 6 6 5 5
9 10 11 11 13 14 14 14 15 15 15 15 15 14 14 14 14 13 13 12 12 12 11 11 10 10 10 10 9 9 9 8 8 8 7 7 7 6 6 6 5 5 4
8 9 10 11 12 13 13 14 14 14 14 14 14 14 14 13 13 13 12 12 12 11 11 11 11 10 10 10 9 9 8 8 8 8 7 7 6 6 5 5 5 4 4
8 9 10 10 11 12 13 13 13 13 13 13 13 13 13 13 13 12 12 12 11 11 11 11 10 10 10 9 9 8 8 8 7 7 7 6 6 5 5 5 4 4 3
8 8 9 10 11 11 12 12 13 12 13 13 13 13 13 13 12 12 12 11 11 11 11 10 10 10 9 9 9 8 8 8 7 7 6 6 5 5 4 4 3 3 3
7 8 9 9 10 11 11 12 12 12 12 12 12 12 12 12 12 12 11 11 11 10 10 10 10 9 9 8 8 8 8 7 7 6 6 5 5 4 4 3 3 2 2
7 7 8 9 9 10 10 11 11 11 11 11 11 11 11 11 11 11 11 10 10 10 10 9 9 9 8 8 8 7 7 7 6 6 5 5 4 4 3 3 2 2 1
6 7 7 8 9 9 10 10 10 10 11 11 11 11 10 10 10 10 10 10 10 9 9 9 8 8 8 7 7 7 6 6 6 5 5 4 4 3 3 2 2 1 1
5 6 7 7 8 8 9 9 10 10 10 10 10 10 10 10 9 9 9 9 9 9 9 8 8 8 7 7 7 6 6 5 5 5 4 4 3 3 2 2 1 1 0
5 5 6 6 7 8 8 9 9 9 9 9 9 9 9 9 9 9 9 9 9 9 9 9 8 8 7 7 6 6 6 5 5 4 4 3 3 2 2 1 1 0 -0
4 5 5 6 6 7 8 8 8 8 9 8 8 8 8 8 8 8 8 8 8 8 8 8 7 7 7 6 6 5 5 5 4 4 3 3 2 2 1 1 0 -0 -1

GEFSMW_850_meantemp_162.txt.gz
Temperature
16 15 15 14 14 14 14 14 14 13 13 13 12 12 12 12 12 12 12 12 12 12 11 11 11 11 10 10 10 10 10 9 9 9 9 9 10 10 10 9 9 9 9
15 15 14 14 14 14 14 14 14 14 14 14 14 13 13 13 13 13 12 12 12 12 12 11 11 11 10 10 10 10 10 9 9 9 9 9 9 10 10 10 9 9 9
15 15 15 15 15 14 15 15 15 14 14 14 13 13 12 12 12 12 12 12 12 12 12 12 11 11 11 10 10 10 10 10 9 9 9 9 9 9 10 10 9 9 9
15 15 15 15 15 16 16 15 15 15 15 14 14 13 13 13 14 14 13 13 12 12 12 12 11 11 11 10 10 10 10 10 9 9 9 9 9 9 9 9 9 9 9
14 15 15 16 16 16 16 16 15 15 15 14 14 14 14 14 14 14 13 13 13 12 12 12 11 11 11 11 10 10 10 10 10 9 9 9 9 9 8 9 9 9 9
14 15 15 16 16 16 16 16 15 15 15 14 14 14 14 14 14 14 14 13 13 13 12 12 12 11 11 11 11 10 10 10 10 9 9 9 9 9 8 8 8 9 9
14 14 15 15 15 15 16 15 15 15 15 15 14 14 14 14 14 14 14 14 14 13 13 13 12 12 11 11 11 10 10 10 10 9 9 9 9 8 8 8 8 8 8
13 14 14 15 15 15 16 16 16 16 15 15 15 15 15 14 14 14 14 14 15 14 14 14 13 12 12 11 11 10 10 10 9 9 9 9 9 8 8 8 8 7 8
12 13 14 14 15 15 16 16 16 16 16 16 15 15 15 15 15 15 14 14 14 14 14 14 13 13 12 11 11 10 10 10 9 9 9 9 9 8 8 8 8 7 7
11 12 13 14 14 15 15 16 16 16 16 16 16 16 15 15 15 15 14 14 15 14 14 14 13 13 12 11 11 10 10 10 10 9 9 9 9 8 8 8 8 7 7
10 11 12 13 14 14 15 15 16 16 16 16 16 16 16 16 15 15 15 14 14 14 14 14 13 13 12 11 11 10 10 10 9 9 9 9 9 8 8 8 8 7 7
9 10 11 12 13 13 14 14 15 15 16 16 16 16 16 15 15 15 15 14 14 14 14 13 13 12 12 11 11 10 10 10 10 9 9 9 9 8 8 8 7 7 7
8 9 10 10 11 12 13 14 14 15 15 15 15 15 15 15 15 15 15 14 14 13 13 13 13 12 12 11 11 10 10 10 10 9 9 9 8 8 8 8 7 7 7
7 8 9 9 10 11 12 13 14 14 15 15 15 15 15 15 15 15 14 14 14 13 13 13 12 12 12 11 11 10 10 10 9 9 9 9 8 8 8 7 7 7 6
6 7 8 8 9 10 11 12 13 14 14 14 15 15 15 15 14 14 14 13 13 13 13 12 12 12 11 11 11 10 10 10 9 9 9 8 8 8 7 7 7 6 6
5 6 7 7 8 9 10 11 12 13 13 14 14 14 14 14 14 14 13 13 13 12 12 12 12 11 11 11 10 10 10 9 9 9 9 8 8 8 7 7 6 6 5
5 5 6 7 7 8 9 10 11 12 13 13 14 14 14 13 13 13 13 12 12 12 12 12 11 11 11 11 10 10 9 9 9 9 8 8 8 7 7 7 6 6 5
5 5 5 6 7 8 9 10 11 12 12 13 13 13 13 13 13 12 12 12 12 12 12 11 11 11 10 10 10 10 9 9 8 8 8 8 7 7 7 6 6 5 5
4 5 5 6 7 8 8 9 10 11 11 12 12 12 12 12 12 12 12 12 12 11 11 11 11 10 10 10 10 9 9 8 8 8 8 7 7 7 6 6 5 5 4
4 5 5 6 7 7 8 8 9 10 10 11 12 12 12 12 12 12 12 12 11 11 11 11 10 10 10 10 9 9 9 8 8 8 7 7 6 6 6 5 5 4 4
4 4 5 6 6 7 7 8 9 9 10 10 11 11 11 11 11 11 11 11 11 10 10 10 10 10 9 9 9 9 9 8 8 7 7 7 6 6 5 5 4 4 3
3 4 4 5 6 6 6 7 8 9 9 10 10 10 10 10 10 10 10 10 10 10 10 9 9 9 9 9 9 9 8 8 8 7 7 6 6 5 5 4 4 3 3
3 3 4 4 5 5 6 7 7 8 8 9 9 10 10 10 10 10 10 9 9 9 9 9 9 9 9 9 9 8 8 7 7 7 6 6 5 5 4 4 3 3 2
3 3 3 4 4 5 5 6 7 7 8 8 8 9 9 9 9 9 9 9 9 9 9 9 9 8 8 8 8 8 7 7 6 6 6 5 5 4 4 3 3 2 2
2 3 3 3 4 4 5 5 6 6 7 7 7 8 8 8 8 8 8 8 8 9 9 9 9 9 8 8 8 8 7 7 7 6 5 5 4 4 3 3 2 2 1
2 2 2 3 3 4 4 5 5 6 6 6 7 7 7 7 7 7 7 7 7 8 8 8 8 8 8 8 7 7 7 6 6 5 5 4 4 3 3 2 2 1 1

GEFSMW_850_meantemp_168.txt.gz
Temperature
13 13 13 12 12 12 12 12 12 13 13 12 12 12 12 12 12 12 12 12 11 11 11 11 11 10 10 10 10 10 10 10 9 9 9 9 9 10 10 10 9 9 9
13 12 12 12 12 12 12 12 12 12 12 13 13 12 12 12 12 12 12 12 11 11 11 11 11 11 10 10 10 10 9 9 9 9 9 9 9 10 10 10 10 9 9
13 12 12 12 12 12 13 13 13 12 13 12 12 12 11 11 11 12 12 12 12 11 11 11 11 11 11 10 10 10 10 10 9 9 9 10 11 10 9 10 9 9 9
12 12 12 12 12 13 13 13 13 12 13 12 12 12 12 12 12 12 12 12 12 12 11 11 11 11 11 11 10 10 10 9 9 9 9 9 9 9 9 9 9 9 9
12 12 12 12 13 13 13 13 13 12 13 12 12 12 12 12 12 12 12 12 12 12 12 11 11 11 11 11 10 10 10 10 9 9 9 9 9 9 9 9 9 9 9
12 12 11 11 12 12 12 13 12 12 12 13 13 12 12 12 12 12 12 12 12 12 12 12 11 11 11 11 11 10 10 10 9 9 9 9 9 9 9 9 9 9 9
11 11 11 11 11 12 12 12 12 12 12 12 12 13 13 12 12 12 12 12 12 12 13 12 12 12 11 11 11 11 10 10 10 10 9 9 9 9 9 8 8 8 8
11 10 11 11 11 12 12 12 13 13 12 13 13 13 13 12 12 12 12 12 12 13 13 13 12 12 12 11 11 10 10 10 10 10 9 9 9 9 9 8 8 8 8
10 10 10 10 11 11 12 12 13 13 13 13 13 13 13 12 13 13 12 12 12 12 13 13 12 12 12 11 11 11 10 10 10 10 9 9 9 9 9 8 8 7 7
9 9 9 10 10 11 11 12 12 13 13 13 13 13 13 13 13 13 12 13 13 12 12 13 12 12 12 11 11 11 10 10 10 10 9 9 9 9 9 8 8 8 7
8 8 9 9 10 10 11 11 12 12 12 13 13 13 13 13 13 13 13 13 13 12 12 13 12 12 12 11 11 11 10 10 10 10 10 9 9 9 9 9 8 8 7
7 8 8 8 9 9 10 10 11 11 12 12 13 13 13 13 13 13 13 13 12 12 12 12 12 12 12 11 11 11 11 10 10 10 10 9 9 9 9 8 8 8 7
7 7 7 8 8 8 9 9 10 11 12 12 12 12 13 12 12 13 13 13 13 12 12 12 12 12 12 12 11 11 11 10 10 10 10 9 9 9 9 8 8 8 7
6 6 7 7 7 7 8 9 9 10 11 11 12 12 12 13 13 13 13 13 13 12 12 12 12 12 12 11 11 11 11 10 10 10 9 9 9 9 9 8 8 7 7
6 6 6 6 6 7 7 8 8 9 10 10 11 11 12 12 12 12 12 12 12 12 12 12 12 11 11 11 11 11 11 10 10 10 9 9 9 9 8 8 8 7 7
5 5 5 5 5 6 7 7 8 8 9 10 10 11 11 11 12 12 12 12 12 12 12 12 11 11 11 11 11 11 10 10 10 10 9 9 9 9 8 8 7 7 7
5 4 4 5 5 5 6 6 7 8 8 9 10 10 11 11 11 12 12 12 12 12 12 11 11 11 11 11 11 10 10 10 10 9 9 9 9 8 8 8 7 7 6
4 4 4 4 4 5 5 6 7 7 8 9 9 10 10 11 11 11 11 11 11 11 11 11 11 11 11 11 11 10 10 9 9 9 9 9 8 8 8 7 7 7 6
3 3 3 3 4 4 5 6 6 7 7 8 9 9 9 10 10 11 11 11 11 11 11 11 11 11 11 11 10 10 9 9 9 9 8 8 8 8 7 7 7 6 6
3 3 3 3 3 4 5 5 6 6 7 7 8 8 9 9 10 10 10 11 11 11 10 10 10 10 10 10 10 9 9 9 8 8 8 8 7 7 7 6 6 6 5
3 2 2 3 3 4 4 5 5 5 6 7 7 8 8 9 9 10 10 10 10 10 10 10 10 10 10 10 10 9 9 9 8 8 8 8 7 7 6 6 6 5 5
2 2 2 2 3 3 4 4 4 5 6 6 7 7 8 8 9 9 9 9 9 9 9 9 9 9 9 9 9 9 9 9 8 8 7 7 7 6 6 6 5 5 4
2 2 2 2 2 3 3 4 4 5 5 6 6 7 7 7 8 8 8 8 8 8 8 8 9 9 9 9 9 8 8 8 8 7 7 7 6 6 5 5 5 4 4
1 1 1 1 2 2 3 3 4 4 5 5 6 6 6 7 7 7 8 8 8 8 8 8 8 8 8 8 8 8 7 7 7 7 6 6 6 5 5 4 4 3 3
0 1 1 1 1 2 2 3 3 4 4 5 5 5 6 6 6 6 7 7 7 8 8 8 8 8 8 8 8 8 7 7 6 6 6 5 5 4 4 4 3 3 3
0 0 0 1 1 1 2 2 3 3 3 4 4 5 5 5 5 6 6 6 6 7 7 7 8 8 8 7 7 7 7 7 6 6 5 5 5 4 4 4 3 3 2

GEFSMW_850_meantemp_174.txt.gz
Temperature
14 14 14 14 13 13 13 13 13 13 13 13 13 12 12 12 12 12 12 12 12 12 12 11 11 11 11 11 11 10 10 10 10 10 10 10 10 10 10 10 10 10 10
13 14 13 13 13 13 13 12 12 12 12 12 12 13 13 13 13 12 12 12 12 12 12 11 11 11 11 10 10 10 10 10 10 10 9 9 10 10 10 10 10 10 10
12 13 13 12 12 12 12 12 12 12 12 12 12 12 12 12 12 12 12 12 12 12 12 12 11 11 11 11 11 10 10 10 10 10 10 10 10 10 10 10 10 10 10
12 12 12 12 12 12 12 12 12 12 12 12 12 12 12 12 12 12 12 12 12 12 12 12 11 11 11 11 11 11 11 10 10 10 10 10 10 10 10 10 10 10 10
12 11 11 11 11 11 11 11 11 11 11 12 12 12 12 12 12 12 12 12 12 12 12 12 12 11 11 11 11 11 10 10 11 10 10 10 10 10 10 9 10 10 10
11 11 11 11 11 11 11 11 11 11 11 11 12 12 12 12 12 12 12 12 12 12 12 12 12 12 11 11 11 11 11 10 10 10 10 10 10 10 10 10 10 10 10
11 11 10 10 10 10 10 10 11 11 11 11 12 12 12 12 12 12 12 12 12 12 12 12 12 12 12 11 11 11 11 10 10 10 10 10 10 10 10 10 9 9 9
10 10 10 10 10 10 10 10 10 11 11 11 11 12 12 12 12 12 12 12 12 12 12 12 12 12 12 11 11 11 11 10 10 10 10 10 10 10 10 9 9 9 9
10 10 9 9 9 9 10 10 10 10 10 11 11 12 12 12 12 12 12 12 12 12 12 12 12 11 11 11 11 11 11 11 10 10 10 10 10 10 9 9 9 9 8
9 9 9 9 9 9 9 9 10 10 10 10 11 11 12 12 12 12 12 12 12 11 12 11 12 11 11 11 11 11 11 10 10 10 10 10 10 10 9 9 9 9 8
9 9 9 9 9 9 9 9 9 9 10 10 10 11 11 11 12 12 12 12 11 11 12 12 12 11 11 11 11 11 11 10 10 10 10 10 10 9 9 9 9 9 8
8 8 8 8 8 8 8 8 9 9 9 10 10 10 11 11 11 11 12 11 11 11 11 11 11 11 11 11 11 11 11 11 10 10 10 10 10 9 9 9 9 9 8
8 8 8 8 8 8 8 8 8 9 9 9 10 10 10 11 11 11 11 11 11 11 11 11 11 11 11 11 11 11 11 11 11 10 10 10 10 9 9 9 9 9 8
7 7 7 7 7 7 7 8 8 8 8 8 9 10 10 10 11 11 11 11 11 11 11 11 11 11 11 11 11 11 11 11 10 10 10 10 10 9 9 9 9 9 8
7 7 6 6 6 7 7 7 7 7 8 8 8 9 10 10 10 10 10 11 11 11 11 11 11 11 11 11 11 11 10 10 10 10 9 9 9 9 9 9 9 8 8
6 6 6 6 6 6 6 6 6 7 7 7 8 8 9 9 10 10 10 10 10 10 11 10 10 10 10 11 11 10 10 10 10 9 9 9 9 9 9 8 8 8 8
6 5 5 5 5 5 5 5 6 6 6 7 7 8 8 9 9 9 9 10 10 10 10 10 10 10 10 10 10 10 10 9 9 9 9 9 9 9 8 8 8 8 7
5 5 4 4 4 4 4 5 5 5 6 6 7 7 8 8 8 9 9 10 10 10 10 10 10 10 10 10 10 10 9 9 9 9 9 9 9 9 8 8 8 7 7
4 4 4 4 4 4 4 4 4 5 5 5 6 6 7 8 8 8 9 9 9 9 10 10 10 10 10 10 10 9 9 9 9 9 9 8 8 8 8 8 7 7 7
4 3 3 3 3 3 3 3 3 4 4 5 5 6 6 7 7 8 8 9 9 9 9 9 9 9 10 10 10 9 9 8 8 8 8 8 8 8 7 7 7 7 7
3 3 3 3 3 3 3 3 3 3 4 4 5 5 6 6 7 7 8 8 8 9 9 9 9 9 9 9 9 9 8 8 8 8 8 8 7 7 7 7 7 7 6
3 2 2 2 2 2 2 2 3 3 3 4 4 5 5 6 6 7 7 8 8 8 8 8 8 8 9 9 9 9 8 8 8 8 7 7 7 7 7 6 6 6 5
2 2 2 2 2 2 2 2 2 2 3 3 4 4 5 5 6 6 7 7 7 7 7 8 8 8 8 8 8 8 8 8 7 7 7 7 6 6 6 6 5 5 5
1 1 1 1 1 1 1 2 2 2 2 3 3 3 4 5 5 6 6 6 6 7 7 7 7 7 7 7 8 8 7 7 7 7 6 6 6 6 5 5 5 5 4
1 1 1 1 1 1 1 1 1 2 2 2 3 3 4 4 5 5 5 5 6 6 6 6 6 7 7 7 7 7 7 7 7 6 6 5 5 5 5 5 4 4 4
0 0 0 0 0 0 1 1 1 1 1 2 2 2 3 3 4 4 5 5 5 5 6 6 6 6 6 7 7 7 7 6 6 6 6 5 5 5 4 4 4 4 3

GEFSMW_850_meantemp_180.txt.gz
Temperature
10 11 11 11 11 12 11 12 12 12 12 12 12 11 11 12 12 12 12 12 12 12 12 12 12 12 12 11 11 11 10 10 10 10 10 10 10 10 10 10 10 10 10
10 10 11 11 11 11 11 11 11 11 11 11 12 12 12 12 12 12 12 12 12 12 12 12 12 12 12 11 11 11 10 10 10 10 9 9 10 10 10 10 10 10 10
9 10 10 11 11 11 11 11 11 11 11 11 11 11 11 11 11 11 11 11 12 12 12 12 12 12 12 11 11 11 11 10 10 10 10 10 10 10 10 10 10 10 10
9 10 10 10 10 11 11 11 11 11 11 11 11 11 11 11 11 11 11 11 11 12 12 12 12 12 12 12 11 11 11 11 10 10 10 10 10 10 10 10 10 10 10
9 9 10 10 10 10 10 10 10 11 11 11 11 11 11 11 11 11 11 11 11 11 11 11 12 12 12 12 11 11 11 11 10 10 10 10 10 10 10 10 10 10 10
9 9 9 10 10 10 10 10 10 10 10 10 10 10 11 11 11 11 11 11 11 11 11 11 12 12 12 12 11 11 11 11 10 10 10 10 10 10 10 10 10 10 10
8 8 9 9 9 10 10 10 10 10 10 10 10 10 11 11 11 11 11 11 11 11 12 11 11 11 12 12 11 11 11 10 10 10 10 10 10 10 10 10 10 10 10
8 8 8 9 9 9 9 9 9 9 9 9 10 10 10 11 11 11 11 11 11 11 12 12 12 11 11 11 11 11 11 10 10 10 10 10 10 10 10 10 10 9 9
8 8 8 8 8 8 8 9 9 9 9 9 9 10 10 10 10 11 11 11 11 11 11 11 11 11 11 11 11 11 11 10 10 10 10 10 10 10 10 10 10 9 9
7 7 8 8 8 8 8 8 8 8 8 9 9 9 9 10 10 10 10 11 11 11 11 11 11 11 11 11 11 10 10 10 10 10 10 10 10 10 9 9 9 9 9
7 7 7 7 8 7 8 8 8 8 8 8 8 9 9 9 10 10 10 11 11 11 11 11 11 11 11 11 10 10 10 10 10 10 10 10 10 9 9 9 9 9 9
6 7 7 7 7 7 7 7 7 7 7 8 8 8 8 9 9 10 10 10 10 11 11 10 11 11 11 11 10 10 10 10 10 10 10 10 10 9 9 9 9 9 9
6 6 6 6 6 6 6 6 6 7 7 7 7 7 8 8 9 10 10 10 10 10 10 10 10 10 10 10 10 10 10 10 10 10 10 10 10 9 9 9 9 9 9
5 5 5 6 6 6 6 6 6 6 6 6 7 7 7 8 8 9 9 9 9 10 10 10 10 10 10 10 10 10 10 10 10 10 10 10 9 9 9 9 9 9 8
5 5 5 5 5 5 5 6 6 6 6 6 6 7 7 7 8 8 9 9 9 10 10 10 10 10 10 10 10 10 10 10 10 10 10 9 9 9 9 9 9 8 8
5 5 5 5 5 5 5 5 5 5 5 5 6 6 7 7 7 7 8 8 9 9 9 9 9 9 9 10 10 10 10 10 10 10 9 9 9 9 9 9 8 8 8
4 4 4 4 4 4 4 4 4 5 5 5 5 5 6 6 7 7 7 8 8 9 9 9 9 9 9 9 9 9 9 9 9 9 9 9 9 9 8 8 8 8 8
4 4 4 4 4 4 4 4 4 4 4 5 5 5 5 6 6 6 7 7 8 8 8 8 8 9 9 9 9 9 9 9 9 9 9 9 9 9 8 8 8 7 7
4 4 4 3 3 3 3 3 3 4 4 4 4 4 5 5 5 6 6 7 7 7 8 8 8 8 8 9 9 9 8 9 9 9 9 9 9 8 8 7 7 7 7
4 3 3 3 3 3 3 3 3 3 3 3 4 4 4 4 5 5 6 6 7 7 7 8 8 8 8 8 8 8 8 8 8 8 8 8 8 8 7 7 7 7 6
3 3 3 3 2 2 2 2 2 3 3 3 3 3 4 4 4 5 5 6 6 7 7 7 7 8 8 8 8 8 8 8 8 8 8 8 8 7 7 7 7 6 6
3 3 2 2 2 2 2 2 2 2 2 2 3 3 3 3 4 5 5 6 6 6 7 7 7 7 7 7 7 8 8 8 8 8 8 8 7 7 7 6 6 6 5
2 2 2 2 2 2 2 2 2 2 2 2 2 3 3 3 3 4 5 5 5 6 6 6 6 6 7 7 7 7 7 7 7 7 7 7 7 6 6 6 5 5 5
2 2 1 1 1 1 1 1 1 1 2 2 2 2 2 3 3 4 4 4 5 5 5 6 6 6 6 6 6 6 6 7 7 7 6 6 6 6 5 5 5 4 4
1 1 1 1 1 1 1 1 1 1 1 1 1 2 2 2 3 3 3 4 4 4 5 5 5 5 6 6 6 6 6 6 6 6 6 6 5 5 5 5 4 4 4
1 0 0 0 0 0 0 0 0 0 1 1 1 1 1 2 2 2 3 3 4 4 4 5 5 5 5 5 5 5 5 5 5 6 6 5 5 5 5 4 4 4 3

GEFSMW_850_meantemp_186.txt.gz
Temperature
9 9 9 10 10 10 10 10 10 10 10 10 11 11 11 11 11 11 11 11 11 11 11 11 11 11 11 11 11 11 10 10 10 10 10 10 10 10 10 10 10 10 10
9 9 9 9 9 10 10 10 10 10 10 10 10 10 11 11 11 11 11 11 11 11 11 11 11 11 11 11 11 10 10 10 10 10 9 9 9 10 10 10 10 10 10
8 8 9 9 9 9 9 9 10 10 10 10 10 10 10 10 10 10 10 11 11 11 11 10 11 11 11 10 10 10 10 10 10 10 10 9 9 10 10 10 10 10 10
8 8 8 9 9 9 9 9 9 10 10 10 9 10 10 10 10 10 10 10 10 10 10 10 10 10 10 10 10 10 10 10 10 9 10 10 10 10 10 10 10 10 10
7 8 8 8 9 9 9 9 9 10 10 10 9 9 9 10 10 10 10 10 10 10 10 10 10 10 10 10 10 10 10 10 10 10 10 10 10 10 10 9 10 10 10
7 7 8 8 8 9 9 9 9 9 9 9 9 9 9 9 9 9 9 10 10 10 10 10 10 10 10 10 10 10 10 10 10 10 10 10 10 10 10 10 10 10 10
7 7 7 7 8 8 8 8 9 9 9 9 9 9 9 9 9 9 9 9 9 10 10 10 10 10 10 10 10 10 10 10 10 10 10 10 10 10 10 10 9 9 9
6 7 7 7 7 7 8 8 8 8 8 8 9 9 9 9 9 9 9 9 9 10 10 10 10 10 10 10 10 10 10 10 10 10 10 10 10 10 10 10 10 9 9
6 6 6 7 7 7 7 8 8 8 8 8 8 8 8 8 8 9 9 9 9 9 10 10 10 10 10 10 10 10 10 10 10 10 10 10 10 10 10 10 10 9 8
6 6 6 6 7 7 7 7 7 7 7 8 8 8 8 8 8 8 8 9 9 9 9 9 9 9 10 10 9 10 10 10 10 10 9 9 10 10 9 9 9 9 9
5 5 6 6 6 6 7 7 7 7 7 7 7 7 7 7 8 8 8 8 9 9 9 9 9 9 9 9 9 9 10 9 9 9 9 9 10 9 9 9 9 9 9
5 5 5 5 6 6 6 6 6 6 6 6 7 7 7 7 7 7 8 8 8 8 8 8 9 9 9 9 9 9 9 9 9 9 9 9 9 9 9 9 9 9 9
5 5 5 5 5 5 6 6 6 6 6 6 6 6 6 7 7 7 7 8 8 8 8 8 8 9 9 9 9 9 9 9 9 9 9 9 9 9 9 9 9 9 9
4 4 4 5 5 5 5 5 5 5 5 5 5 5 6 6 6 7 7 7 8 8 8 8 8 8 9 9 9 9 9 9 9 9 9 9 9 9 9 9 9 9 8
4 4 4 4 4 4 5 5 5 5 5 4 5 5 5 5 6 6 7 7 7 7 7 8 8 8 8 9 9 9 9 9 9 9 9 9 9 9 9 9 9 8 8
4 4 4 4 4 4 4 4 4 4 4 4 4 4 5 5 5 6 6 6 7 7 7 7 8 8 8 8 9 8 8 8 8 9 9 9 8 8 9 8 8 8 8
4 4 4 4 4 4 3 4 4 4 4 3 4 4 4 4 5 5 5 6 6 6 6 7 7 8 8 8 8 8 8 8 8 8 8 8 8 8 8 8 8 8 7
3 3 3 3 3 3 3 3 3 3 3 3 3 3 3 4 4 5 5 5 6 6 6 6 7 7 7 8 8 8 8 8 8 8 8 8 8 8 8 8 8 7 7
3 3 3 3 3 3 3 3 3 3 3 3 3 3 3 3 4 4 5 5 5 5 6 6 6 7 7 7 7 7 7 7 7 7 8 8 8 8 8 7 7 7 7
3 3 2 2 3 2 2 2 2 2 2 2 2 3 3 3 3 4 4 4 5 5 5 5 6 6 6 7 7 7 7 7 7 7 7 7 8 8 7 7 7 7 7
3 2 2 2 2 2 2 2 2 2 2 2 2 2 2 2 3 3 4 4 4 5 5 5 5 6 6 6 6 6 6 6 6 7 7 7 7 7 7 7 7 7 6
2 2 2 2 2 2 2 1 1 1 1 1 2 2 2 2 2 3 3 4 4 4 5 5 5 5 6 6 6 6 6 6 6 6 6 7 7 7 7 6 6 6 6
2 2 2 2 2 1 1 1 1 1 1 1 1 1 2 2 2 2 3 3 3 3 4 4 4 5 5 5 5 5 6 6 6 6 6 6 6 6 6 6 6 6 5
1 1 1 1 1 1 1 1 1 1 1 1 1 1 2 2 2 2 2 2 3 3 3 3 4 4 4 5 5 5 5 5 5 5 5 5 6 6 6 5 5 5 5
1 1 1 1 1 1 1 1 1 1 1 1 1 1 1 2 2 2 2 2 2 2 2 3 3 3 4 4 4 4 4 5 5 5 5 5 5 5 5 5 4 4 4
0 0 0 0 0 0 0 0 0 0 0 0 0 1 1 1 1 2 2 2 2 2 2 2 3 3 3 3 4 4 4 4 4 4 4 4 4 4 4 4 4 4 3

GEFSMW_850_meantemp_192.txt.gz
Temperature
10 9 9 9 9 9 9 9 9 9 9 9 9 9 9 10 10 10 10 10 10 11 11 10 10 10 10 10 10 10 10 10 10 9 9 9 10 10 10 10 10 10 10
9 9 9 9 8 8 9 9 9 9 9 9 9 9 9 9 9 10 10 10 10 10 10 10 10 10 10 10 10 10 9 9 9 9 9 9 9 10 10 10 10 10 10
9 9 8 8 8 8 8 8 9 9 9 9 9 9 9 9 9 9 9 10 10 10 10 10 10 10 9 9 9 9 9 9 9 9 9 10 10 10 10 10 10 10 10
8 8 8 8 8 8 8 8 8 8 9 8 8 8 8 8 9 9 9 9 9 9 10 10 9 9 9 9 9 9 9 9 9 9 9 10 10 10 10 9 9 10 10
8 7 7 7 7 8 8 8 8 8 8 8 8 8 8 8 8 8 9 9 9 9 9 9 9 9 9 9 9 9 9 9 9 9 9 9 9 10 9 9 9 9 9
8 7 7 7 7 7 7 7 8 8 8 8 8 8 8 8 8 8 8 8 8 9 9 9 9 9 9 9 9 9 9 9 9 9 9 9 9 9 9 9 9 9 9
8 7 7 7 7 7 7 7 7 8 8 8 8 8 8 8 8 8 8 8 8 8 8 8 8 9 9 9 9 9 9 9 9 9 9 9 9 9 9 9 9 9 9
7 7 7 6 6 6 6 7 7 7 7 7 7 7 8 7 7 7 8 8 8 8 8 8 8 8 8 8 8 8 8 8 9 9 9 9 9 9 9 9 9 8 8
7 7 6 6 6 6 6 6 7 7 7 7 7 7 7 7 7 7 7 7 8 8 8 8 8 8 8 8 8 8 8 8 8 8 9 8 9 9 9 9 9 9 8
7 6 6 6 6 6 6 6 6 6 6 7 7 7 7 7 7 7 7 7 7 7 7 8 8 8 8 8 8 8 8 8 8 8 8 8 8 8 8 9 9 9 9
6 6 6 6 6 6 6 6 6 6 6 6 6 6 6 6 6 7 7 7 7 7 7 7 7 7 7 8 8 8 8 8 8 8 8 8 8 8 8 8 9 9 9
6 5 5 5 5 5 5 5 5 5 6 6 6 6 6 6 6 6 6 6 6 7 7 7 7 7 7 7 8 8 8 8 8 8 8 8 8 8 8 8 8 8 8
5 5 5 5 5 5 5 5 5 5 5 5 5 5 5 5 6 6 6 6 6 6 6 7 7 7 7 7 7 7 8 8 8 8 8 8 8 8 8 8 8 8 8
5 4 4 4 4 4 4 4 4 4 5 5 5 5 5 5 5 5 5 6 6 6 6 6 7 7 7 7 7 7 7 8 8 8 8 8 8 8 8 8 8 8 8
4 4 4 4 4 4 4 4 4 4 4 4 4 4 4 4 4 5 5 5 5 6 6 6 6 6 7 7 7 7 7 7 8 8 8 8 8 8 8 8 8 8 7
4 4 3 3 3 3 3 3 3 3 3 3 4 4 4 4 4 4 4 5 5 5 6 6 6 6 6 7 7 7 7 7 7 7 8 8 7 7 7 8 8 8 7
3 3 3 3 3 3 3 3 3 3 3 3 3 3 3 3 3 3 4 4 5 5 5 5 5 6 6 6 6 6 6 7 7 7 7 7 7 7 7 7 7 7 7
3 3 3 3 2 3 2 2 2 2 2 3 3 3 3 3 3 3 3 4 4 4 5 5 5 5 6 6 6 6 6 6 7 7 7 7 7 7 7 7 7 7 7
3 3 2 2 2 2 2 2 2 2 2 2 2 2 2 2 2 3 3 3 4 4 4 4 5 5 5 5 6 6 6 6 6 6 7 7 7 7 7 6 6 6 6
2 2 2 2 2 2 2 2 2 1 1 1 1 2 2 2 2 2 3 3 3 4 4 4 4 5 5 5 5 5 5 5 6 6 6 6 6 6 6 6 6 6 6
2 2 2 2 2 1 1 1 1 1 1 1 1 1 1 1 2 2 2 3 3 3 3 4 4 4 4 5 5 5 5 5 5 5 6 6 6 6 6 6 6 6 6
1 1 1 1 1 1 1 1 1 1 1 1 1 1 1 1 1 2 2 2 2 3 3 3 3 3 4 4 4 4 5 5 5 5 5 5 6 6 6 6 6 6 6
1 1 1 1 1 1 1 0 0 0 0 0 1 1 1 1 1 1 2 2 2 2 2 3 3 3 3 3 4 4 4 4 5 5 5 5 5 5 5 5 5 5 5
1 1 0 0 1 1 1 0 0 0 0 0 0 0 1 1 1 1 1 1 2 2 2 2 2 3 3 3 3 3 4 4 4 4 4 4 5 5 4 4 4 5 5
0 -0 -0 0 0 0 0 0 -0 0 0 0 0 0 0 1 1 1 1 1 1 1 1 2 2 2 2 3 3 3 3 3 3 3 3 3 4 4 4 4 4 4 4
-1 -1 -0 -0 -0 0 -0 -0 -0 -0 -0 -0 -0 0 0 0 1 1 1 1 1 1 2 2 2 2 2 2 3 3 3 3 3 3 3 3 3 3 3 3 3 3 3

GEFSMW_850_meantemp_198.txt.gz
Temperature
12 12 11 11 11 10 10 10 10 10 9 9 9 9 9 9 9 10 10 10 10 10 10 10 9 9 9 10 10 10 10 10 10 9 10 10 10 10 10 11 11 11 11
11 11 11 10 10 10 10 9 9 9 9 9 9 9 9 9 9 9 9 9 9 9 9 9 9 9 9 9 9 9 9 9 9 9 9 9 9 10 10 10 10 10 11
11 11 10 10 10 10 9 9 9 9 8 8 8 8 8 8 8 9 9 9 9 9 9 9 9 9 9 9 9 9 9 9 9 9 9 9 9 9 10 10 10 10 10
11 10 10 10 9 9 9 9 8 8 8 8 8 8 8 8 8 8 8 9 9 9 9 9 9 9 9 9 9 9 9 9 9 9 9 9 9 9 9 9 10 10 10
11 10 10 9 9 9 9 8 8 8 8 8 8 8 8 8 8 8 8 8 8 8 9 8 8 8 8 9 9 9 9 9 9 8 9 9 9 9 9 9 9 9 9
10 10 9 9 9 9 8 8 8 8 8 7 7 7 7 7 7 8 8 8 8 8 8 8 8 8 8 8 8 8 9 8 8 8 8 8 9 9 9 9 9 9 9
10 10 9 9 9 8 8 8 8 7 7 7 7 7 7 7 7 7 7 7 8 8 8 8 8 8 8 8 8 8 8 8 8 8 8 8 8 9 9 9 9 8 9
10 9 9 9 8 8 8 8 7 7 7 7 7 7 7 7 7 7 7 7 7 7 7 8 8 8 8 8 8 8 8 8 8 8 8 8 8 8 8 9 8 8 8
10 9 9 9 8 8 8 7 7 7 7 7 6 6 6 6 6 7 7 7 7 7 7 7 7 7 7 7 8 8 8 8 8 8 8 8 8 8 8 8 8 8 8
9 9 9 8 8 8 7 7 7 6 6 6 6 6 6 6 6 6 6 6 7 7 7 7 7 7 7 7 7 7 7 7 7 7 7 7 8 8 8 8 8 8 8
9 9 8 8 8 7 7 7 6 6 6 6 6 6 6 6 6 6 6 6 6 6 6 6 6 6 6 7 7 7 7 7 7 7 7 7 7 8 7 8 8 8 8
8 8 8 7 7 7 6 6 6 6 6 6 6 6 6 5 5 5 6 6 6 6 6 6 6 6 6 6 6 7 7 7 7 7 7 7 7 7 7 7 8 8 8
8 7 7 7 6 6 6 6 6 5 5 5 5 5 5 5 5 5 5 5 5 5 6 5 6 6 6 6 6 6 6 7 7 7 7 7 7 7 7 7 7 7 8
7 7 6 6 6 6 5 5 5 5 5 5 5 5 4 4 4 5 5 5 5 5 5 5 5 5 6 6 6 6 6 6 6 7 7 7 7 7 7 7 7 7 7
6 6 6 5 5 5 5 5 5 5 4 4 4 4 4 4 4 4 4 4 4 4 4 5 5 5 5 5 6 6 6 6 6 6 6 6 7 7 7 7 7 7 7
6 5 5 5 5 5 5 4 4 4 4 4 3 3 3 3 4 4 4 4 4 4 4 4 4 4 5 5 5 5 6 6 6 6 6 6 6 6 7 7 7 6 6
5 4 4 4 4 4 4 4 4 3 3 3 3 3 3 3 3 3 3 3 3 3 3 4 4 4 4 5 5 5 5 5 5 6 6 6 6 6 6 6 6 6 6
4 4 3 3 3 3 3 3 3 3 3 3 2 2 2 2 2 2 3 3 3 3 3 3 3 4 4 4 4 5 5 5 5 5 5 5 5 6 6 6 6 6 6
3 3 3 3 3 3 3 3 3 2 2 2 2 2 2 2 2 2 2 2 3 3 3 3 3 4 4 4 4 5 5 5 5 5 5 5 5 5 5 5 5 5 5
3 3 3 3 2 2 2 2 2 2 2 2 2 1 1 1 1 1 2 2 2 2 3 3 3 3 3 4 4 4 4 4 4 4 4 5 5 5 5 5 5 5 5
2 2 2 2 2 2 2 2 2 1 1 1 1 1 1 1 1 1 1 1 1 2 2 2 3 3 3 3 4 4 4 4 4 4 4 4 4 4 5 5 5 5 4
2 2 2 2 2 1 1 1 1 1 1 1 1 1 1 1 1 1 1 1 1 1 2 2 2 2 2 3 3 3 3 3 3 3 4 4 4 4 4 4 4 4 4
1 1 1 1 1 1 1 1 1 1 1 1 1 1 1 1 1 1 1 1 1 1 1 1 2 2 2 2 3 3 3 3 3 3 3 3 4 4 4 4 4 3 3
1 1 1 1 1 0 0 0 0 0 0 0 0 0 0 0 1 1 1 1 1 1 1 1 1 1 2 2 2 3 3 3 3 3 3 3 3 3 3 3 3 3 3
0 0 -0 -0 -0 -0 0 -0 -0 -0 -0 -0 -0 -0 -0 0 0 0 0 0 0 1 1 1 1 1 1 1 2 2 2 2 2 2 2 2 3 3 3 3 2 2 2
-1 -1 -1 -1 -1 -1 -1 -0 -1 -1 -1 -0 -0 -0 -0 -0 -0 -0 0 0 0 1 1 1 1 1 1 1 2 2 2 2 2 2 2 2 2 2 2 2 2 2 2

GEFSMW_850_meantemp_204.txt.gz
Temperature
11 11 11 11 11 11 11 11 11 10 10 10 10 10 9 9 9 9 9 9 9 9 9 9 9 9 9 9 9 9 9 9 9 9 9 9 10 10 10 10 10 10 10
11 11 11 11 11 11 11 10 10 10 10 10 9 9 9 9 9 9 9 9 9 9 9 9 9 9 9 9 9 9 9 9 8 8 8 8 9 9 9 10 10 10 10
10 10 10 10 10 10 10 10 10 10 9 9 9 9 8 8 8 8 8 9 9 9 9 8 8 9 9 9 9 8 8 8 8 8 8 8 8 8 9 9 9 9 9
10 10 10 10 10 10 10 10 9 9 9 9 9 8 8 8 8 8 8 8 8 8 8 8 8 8 8 8 8 8 8 8 8 8 8 8 8 8 8 8 9 9 9
10 10 10 10 10 10 9 9 9 9 9 8 8 8 8 8 8 8 8 8 8 8 8 8 8 8 8 8 8 8 8 8 8 7 7 7 7 8 8 8 8 9 9
10 10 10 10 9 9 9 9 9 9 8 8 8 8 7 7 7 7 7 7 7 7 7 7 7 7 7 7 8 8 7 7 7 7 7 7 7 8 8 8 8 8 8
9 9 9 9 9 9 9 8 8 8 8 8 7 7 7 7 7 7 7 7 7 7 7 7 7 7 7 7 7 7 7 7 7 7 7 7 7 7 8 8 7 7 8
9 9 9 9 9 8 8 8 8 8 7 7 7 7 7 7 7 7 6 6 6 6 7 7 7 7 7 7 7 7 7 7 7 7 7 7 7 7 7 7 7 7 7
8 8 8 8 8 8 8 8 7 7 7 7 7 7 7 6 6 6 6 6 6 6 6 6 6 6 7 7 7 7 7 7 7 7 7 7 7 7 7 7 7 7 6
8 8 8 8 8 8 7 7 7 7 6 6 6 6 6 6 6 6 6 6 6 6 6 6 6 6 6 6 6 6 6 6 6 6 6 6 6 6 7 7 7 7 7
7 7 7 7 7 7 7 7 6 6 6 6 6 6 6 6 6 5 5 5 5 5 5 5 5 5 5 5 6 6 6 6 6 6 6 6 6 6 6 6 6 6 6
7 7 7 7 7 7 6 6 6 6 6 6 5 5 5 5 5 5 5 5 5 5 5 5 5 5 5 5 5 5 5 5 5 6 6 6 6 6 6 6 6 6 6
7 7 7 6 6 6 6 6 5 5 5 5 5 5 5 5 5 4 4 4 4 5 5 5 4 5 5 5 5 5 5 5 5 5 5 6 6 6 6 6 6 6 6
6 6 6 6 6 6 5 5 5 5 5 5 5 4 4 4 4 4 4 4 4 4 4 4 4 4 4 4 4 5 5 5 5 5 5 5 5 6 6 6 6 6 6
5 5 5 5 5 5 5 5 5 5 4 4 4 4 4 4 4 4 4 4 4 4 4 4 4 4 4 4 4 4 4 4 5 5 5 5 5 5 6 5 5 6 6
5 5 4 4 4 4 4 4 4 4 4 4 3 3 3 3 3 3 3 3 3 3 3 4 3 3 3 4 4 4 4 4 4 5 5 5 5 5 5 5 5 5 5
4 4 4 4 4 3 3 4 3 3 3 3 3 3 3 3 3 3 3 3 3 3 3 3 3 3 3 3 4 4 4 4 4 4 4 4 5 5 5 5 5 5 5
3 3 3 3 3 3 3 3 3 3 3 3 2 2 2 2 2 3 3 3 3 3 2 3 3 2 3 3 3 3 3 4 4 4 4 4 4 4 4 4 4 5 5
3 3 3 2 2 2 3 3 3 3 2 2 2 2 2 2 2 2 3 3 2 2 2 2 2 2 2 3 3 3 3 3 3 3 4 4 4 4 4 4 4 4 4
2 2 2 2 2 2 2 2 2 2 2 2 2 2 2 2 2 2 2 2 2 2 2 2 2 2 2 2 3 3 2 3 3 3 3 3 4 4 4 4 4 4 4
1 1 1 1 1 1 1 1 1 1 1 1 1 1 1 1 1 1 1 1 1 1 1 1 2 2 2 2 2 2 2 2 2 2 3 3 3 3 3 3 3 3 3
1 1 1 1 1 1 1 1 1 1 1 1 1 1 1 1 1 1 1 1 1 1 1 1 1 1 1 2 2 2 2 2 2 2 2 3 3 3 3 3 3 3 3
0 0 0 0 0 0 0 0 0 0 0 0 0 1 1 1 1 1 1 1 0 -0 0 0 0 1 1 1 1 1 2 2 2 2 2 2 3 3 3 3 3 3 2
-0 -1 -1 -0 -0 -0 -0 -0 -0 -0 -0 -0 0 0 0 0 0 0 0 0 -0 -0 -0 -0 -0 0 1 1 1 1 1 1 2 2 2 2 2 2 2 2 2 2 2
-1 -1 -1 -1 -1 -1 -1 -1 -1 -1 -1 -0 -0 -0 -0 -0 -0 -0 -1 -1 -0 -1 -0 -0 -0 0 0 0 1 1 1 1 1 1 2 2 2 2 2 1 1 1 1
-2 -2 -2 -2 -1 -1 -1 -1 -1 -1 -1 -1 -1 -1 -1 -1 -1 -1 -1 -1 -1 -1 -0 -0 -0 -0 -0 -0 0 0 1 1 1 1 1 1 1 1 1 1 1 1 1

GEFSMW_850_meantemp_210.txt.gz
Temperature
11 11 11 11 11 11 11 11 11 11 11 10 10 10 10 10 10 10 10 9 9 9 9 9 9 9 9 9 9 9 9 9 9 9 9 9 9 10 10 10 10 10 10
10 10 11 10 10 10 10 11 10 10 10 10 10 10 10 10 10 9 9 9 9 9 9 9 9 9 9 9 9 9 8 9 8 8 7 7 8 8 9 9 9 9 9
10 10 10 10 10 10 10 10 10 10 10 10 10 10 9 9 9 9 9 9 8 8 8 8 8 8 8 8 8 8 8 8 8 8 7 7 7 7 8 8 9 9 9
10 10 10 10 10 10 10 10 10 10 10 9 9 9 9 8 8 8 8 8 8 8 8 8 8 7 7 7 8 8 8 7 7 7 7 7 7 7 7 7 8 8 8
9 9 9 10 10 10 10 9 9 9 9 9 9 8 8 8 8 8 8 8 8 8 8 7 7 7 7 7 7 7 7 7 7 7 7 7 7 7 6 6 7 7 8
8 9 9 9 9 9 9 9 9 9 9 8 8 8 8 8 7 7 7 7 7 7 7 7 7 7 7 7 7 7 7 7 7 7 7 6 6 6 6 6 7 7 7
8 8 8 8 9 9 9 9 8 8 8 8 8 8 7 7 7 7 6 6 6 7 7 7 7 6 6 6 6 6 6 6 7 6 6 6 6 6 6 6 6 6 7
7 8 8 8 8 8 8 8 8 8 8 8 8 7 7 7 6 6 6 6 6 6 6 6 6 6 6 6 6 6 6 6 6 6 6 6 6 6 6 6 6 6 6
7 7 8 8 8 8 8 8 8 8 8 7 7 7 7 6 6 6 6 6 6 6 6 6 6 6 6 6 6 5 6 6 5 5 5 5 5 5 6 5 6 6 5
7 7 7 7 7 7 7 7 7 7 7 7 6 6 6 6 6 6 6 6 6 6 6 6 5 5 5 5 5 5 5 5 5 5 5 5 5 5 5 5 5 5 5
7 7 7 7 7 7 7 7 7 7 7 6 6 6 6 6 6 5 5 5 5 5 5 5 5 5 5 5 5 5 5 4 4 4 4 4 5 5 5 5 5 5 5
6 6 6 6 6 6 6 6 6 6 6 6 6 6 6 5 5 5 5 5 5 5 5 4 4 4 5 5 5 4 4 4 4 4 4 4 4 4 4 5 5 5 5
6 6 6 6 6 6 6 6 6 6 6 5 5 5 5 5 5 5 5 4 4 4 4 4 4 4 4 4 4 4 4 4 4 4 4 4 4 4 4 5 4 4 4
5 5 5 5 5 5 5 5 5 5 5 5 5 5 5 4 4 4 4 4 4 4 4 4 4 4 4 4 4 4 4 4 4 4 4 4 4 4 4 4 4 4 4
4 5 5 5 5 5 4 4 4 4 4 4 4 4 4 4 4 4 4 3 3 3 3 3 3 3 3 3 3 3 3 3 3 3 4 4 4 4 4 4 4 4 4
4 4 4 4 4 4 4 4 4 4 4 4 4 4 4 3 3 3 3 3 3 3 3 3 3 3 3 3 3 3 3 3 3 3 3 3 3 3 3 3 3 3 3
3 3 3 3 3 3 3 3 3 3 3 3 3 3 3 3 3 3 3 3 2 2 3 3 3 3 3 3 3 3 3 3 3 3 3 3 3 3 3 3 3 3 3
2 3 3 3 3 3 3 3 3 3 3 3 2 2 2 2 2 2 2 2 2 2 2 2 2 2 2 2 2 2 2 2 2 2 2 3 3 3 3 3 3 3 3
2 2 2 2 2 2 2 2 2 2 2 2 2 2 2 2 2 2 2 2 2 2 2 2 2 2 2 2 2 2 2 2 2 2 2 2 2 3 3 3 3 3 3
2 1 2 1 2 2 1 1 2 1 1 1 1 1 1 1 1 1 1 1 1 1 1 1 1 1 1 1 1 1 1 2 2 2 2 2 2 2 2 3 3 2 2
1 1 1 1 1 1 1 1 1 1 1 1 1 1 1 1 1 1 1 1 1 1 1 1 1 1 1 1 1 1 1 1 1 1 1 1 2 2 2 2 2 2 2
1 0 0 0 0 0 0 0 0 0 0 0 1 1 1 1 0 0 0 0 0 0 0 0 0 1 0 1 1 1 1 1 1 1 1 1 1 1 2 2 2 2 2
-0 -0 -0 -0 -0 -0 -0 -0 -0 -0 -0 0 0 0 0 0 0 -0 -0 -0 -0 -0 -1 -1 -0 -0 0 0 0 0 0 0 0 0 0 1 1 1 1 1 2 2 2
-1 -1 -1 -1 -1 -1 -1 -1 -1 -1 -1 -0 -0 -0 -0 -0 -0 -1 -1 -1 -1 -1 -1 -1 -1 -1 -0 -0 -0 0 0 0 0 0 0 0 1 1 1 1 1 1 1
-1 -1 -1 -1 -1 -1 -1 -1 -1 -1 -1 -1 -1 -1 -1 -1 -1 -1 -1 -1 -1 -2 -2 -1 -1 -1 -1 -1 -1 -0 -0 -0 -0 -0 0 0 0 0 0 1 1 1 1
-2 -2 -2 -2 -2 -2 -2 -2 -2 -2 -2 -1 -1 -1 -1 -2 -2 -2 -2 -2 -2 -2 -2 -1 -1 -1 -1 -1 -1 -1 -1 -0 -0 -0 -0 -0 -0 -0 -0 -0 -0 0 0

GEFSMW_850_meantemp_216.txt.gz
Temperature
11 11 10 10 10 11 11 11 11 11 11 10 10 10 10 10 10 10 10 10 10 10 10 10 9 9 9 9 9 9 9 9 9 8 8 9 9 9 9 9 9 9 9
11 10 10 10 10 10 10 10 10 10 10 10 10 10 10 10 10 10 10 10 10 9 9 9 9 9 8 8 8 8 8 8 8 8 7 8 8 9 9 9 9 9 9
10 10 9 9 10 10 10 10 10 10 10 10 10 10 10 10 9 9 9 9 9 9 9 9 8 8 8 8 8 8 7 7 7 7 7 7 8 8 8 8 8 8 8
10 9 9 9 9 9 9 10 10 10 10 9 9 9 9 9 9 9 9 9 9 8 8 8 8 8 7 7 7 7 7 7 7 7 7 7 7 7 7 8 8 8 8
9 8 9 9 9 9 9 9 9 9 9 9 9 9 9 9 9 8 8 8 8 8 8 8 8 7 7 7 7 7 6 6 6 6 6 6 6 6 6 7 7 7 7
8 8 8 8 8 8 9 9 9 9 9 9 8 8 8 8 8 8 8 8 7 8 7 7 7 7 7 7 6 6 6 6 6 6 6 6 6 6 6 6 6 7 7
7 7 7 8 8 8 8 8 8 8 8 8 8 8 8 8 8 7 7 7 7 7 7 7 7 6 6 6 6 6 6 6 6 6 6 5 5 6 6 6 6 6 6
7 7 7 7 7 7 8 8 8 8 8 8 7 7 7 7 7 7 7 7 7 7 7 6 6 6 6 6 6 6 5 5 5 5 5 5 5 5 5 5 5 5 5
6 6 6 7 7 7 7 7 7 7 7 7 7 7 7 7 7 7 7 6 6 6 6 6 6 6 6 6 5 5 5 5 5 5 5 5 5 5 5 5 5 5 5
6 6 6 6 7 7 7 7 7 7 7 7 7 7 6 6 6 6 6 6 6 6 6 6 5 5 5 5 5 5 5 5 5 4 4 4 4 4 4 4 4 4 5
6 5 6 6 6 6 6 6 6 6 6 6 6 6 6 6 6 6 6 6 5 5 5 5 5 5 5 5 5 5 4 4 4 4 4 4 4 4 4 4 4 4 4
5 5 6 6 6 6 6 6 6 6 6 6 6 6 6 5 5 5 5 5 5 5 5 5 5 5 4 4 4 4 4 4 4 4 4 4 4 4 4 4 4 4 4
5 5 5 5 5 5 5 5 5 5 5 5 5 5 5 5 5 5 5 5 5 5 4 4 4 4 4 4 4 4 4 4 3 3 3 3 3 3 3 3 3 3 3
4 4 4 5 5 5 5 5 5 5 5 5 5 5 5 5 5 5 5 4 4 4 4 4 4 3 3 3 3 3 3 3 3 3 3 3 3 3 3 3 3 3 3
4 4 4 4 4 4 4 4 4 4 4 4 4 4 4 4 4 4 4 4 4 3 3 3 3 3 3 3 3 3 3 3 3 3 3 3 3 3 3 3 3 3 3
3 3 3 3 3 3 3 4 4 4 4 4 4 4 4 4 4 3 3 3 3 3 3 3 3 3 3 3 3 2 3 3 3 3 3 3 2 2 3 3 3 3 3
2 2 2 2 2 3 3 3 3 3 3 3 3 3 3 3 3 3 3 3 3 3 2 2 2 2 2 2 2 2 2 2 2 2 2 2 2 2 2 2 2 2 2
1 2 2 2 2 2 2 3 3 3 3 3 3 3 2 3 3 2 2 2 2 2 2 2 2 2 2 2 2 2 2 2 2 2 2 2 2 2 2 2 2 2 2
1 1 1 1 1 1 2 2 2 2 2 2 2 2 2 2 2 2 2 2 1 1 1 1 1 1 1 1 1 1 1 1 1 1 1 1 1 1 2 1 2 2 2
1 1 1 1 1 1 1 1 1 1 1 1 1 1 1 1 1 1 1 1 1 1 1 1 1 1 1 1 1 1 1 1 1 1 1 1 1 1 1 1 1 1 1
0 0 0 0 0 0 0 0 0 1 1 1 1 1 1 1 1 1 1 0 0 0 0 0 0 0 0 1 1 1 0 0 0 0 0 0 1 1 1 1 1 1 1
-0 -0 -0 -0 -0 -0 -0 -0 -0 -0 0 0 0 0 0 0 0 0 -0 -0 -0 -1 -1 -1 -1 -0 -0 0 0 0 0 0 -0 -0 -0 -0 0 0 1 1 1 1 1
-1 -1 -1 -1 -1 -1 -1 -1 -1 -0 -0 -0 -0 -0 -0 -0 -0 -1 -1 -1 -1 -1 -1 -1 -1 -1 -1 -1 -0 -0 -0 -0 -1 -0 -0 -0 -0 0 0 0 0 0 0
-1 -1 -1 -1 -1 -1 -1 -1 -1 -1 -1 -1 -1 -1 -1 -1 -1 -1 -1 -2 -2 -2 -2 -2 -2 -2 -1 -1 -1 -1 -1 -1 -1 -1 -1 -1 -0 -0 -0 -0 -0 -0 -0
-2 -2 -2 -2 -2 -2 -2 -2 -1 -1 -1 -1 -1 -2 -2 -2 -2 -2 -2 -2 -2 -2 -2 -2 -2 -2 -2 -2 -1 -1 -1 -1 -1 -1 -1 -1 -1 -1 -1 -1 -1 -1 -0
-2 -2 -3 -3 -2 -2 -2 -2 -2 -2 -2 -2 -2 -2 -2 -2 -2 -3 -2 -2 -2 -2 -2 -2 -2 -2 -2 -2 -1 -1 -1 -1 -1 -1 -1 -1 -1 -1 -1 -1 -1 -1 -1

GEFSMW_850_meantemp_222.txt.gz
Temperature
14 14 13 13 12 12 11 11 11 11 11 11 11 11 11 11 11 11 11 11 11 11 11 11 10 10 10 10 10 9 9 9 9 9 9 9 9 9 9 9 9 10 10
14 14 13 12 12 11 11 11 11 11 11 11 11 11 11 10 10 10 10 10 10 10 10 10 10 10 10 9 9 9 9 8 8 8 8 8 8 9 9 9 9 9 9
14 13 12 12 11 11 10 10 10 10 10 10 10 10 10 10 10 10 10 10 10 10 10 10 9 9 9 9 9 8 8 8 8 7 7 7 7 8 8 8 8 8 8
14 13 12 11 11 10 10 10 10 10 10 10 10 10 10 10 10 9 9 9 9 9 9 9 9 9 8 8 8 8 7 7 7 7 7 7 7 7 7 7 7 7 8
13 12 11 11 10 10 9 9 9 9 9 9 9 9 9 9 9 9 9 9 9 9 8 8 8 8 8 8 8 7 7 7 6 6 6 6 6 6 6 6 6 7 7
12 11 11 10 9 9 9 9 9 9 9 9 9 9 9 8 8 8 8 8 8 8 8 8 8 8 8 7 7 7 7 7 6 6 6 5 5 5 5 5 6 6 6
11 10 10 9 9 9 9 9 8 8 8 8 8 8 8 8 8 8 8 8 8 8 8 8 7 7 7 7 7 7 6 6 6 6 5 5 5 5 5 5 5 5 5
10 9 9 8 8 8 8 8 8 8 8 8 8 8 8 8 8 8 7 7 8 8 7 7 7 7 7 7 6 6 6 6 5 5 5 5 5 5 5 5 5 4 5
9 8 8 8 8 8 8 7 7 7 7 7 7 7 7 7 7 7 7 7 7 7 7 7 7 7 6 6 6 6 5 5 5 5 5 5 5 5 5 4 4 4 4
8 8 7 7 7 7 7 7 7 7 7 7 7 7 7 7 7 7 7 7 7 7 6 6 6 6 6 6 6 5 5 5 5 5 5 5 5 4 4 4 4 4 4
7 7 7 7 7 7 7 7 7 7 6 6 7 7 6 6 6 6 6 6 6 6 6 6 6 6 6 5 5 5 5 5 5 4 4 4 4 4 4 4 4 4 4
7 7 6 6 6 6 6 6 6 6 6 6 6 6 6 6 6 6 6 6 6 6 6 5 5 5 5 5 4 4 4 4 4 4 4 4 4 4 4 4 4 4 4
6 6 6 6 6 5 5 5 5 5 5 5 5 5 5 5 5 5 5 5 5 5 5 5 5 5 4 4 4 4 3 3 3 3 3 3 3 3 3 3 3 3 3
5 5 5 5 5 5 5 5 5 5 5 5 5 5 5 5 5 5 5 5 5 5 5 5 4 4 4 4 4 3 3 3 3 3 3 3 3 3 3 3 3 3 3
5 4 4 4 4 4 4 4 4 4 4 4 4 4 4 4 4 4 4 4 4 4 4 4 4 4 4 3 3 3 3 3 3 3 3 3 3 3 3 3 3 2 2
4 4 4 4 4 4 3 4 4 4 4 4 4 4 4 4 4 4 4 4 4 4 3 3 3 3 3 3 3 3 3 3 2 2 3 2 2 2 2 2 2 2 2
3 3 3 3 3 3 3 3 3 3 3 3 3 3 3 3 3 3 3 3 3 3 3 3 3 3 3 2 2 2 2 2 2 2 2 2 2 2 2 2 2 2 2
2 2 2 2 2 2 3 3 3 3 3 3 2 2 2 2 2 2 2 2 2 2 2 2 2 2 2 2 2 2 2 2 2 1 1 1 1 1 1 1 1 1 1
2 2 2 2 2 2 2 2 2 2 2 2 2 1 2 2 2 2 1 1 1 1 1 1 1 1 2 1 1 1 1 1 1 1 1 1 1 1 1 1 1 1 1
1 1 1 1 1 1 1 1 1 1 1 1 1 1 1 1 1 1 1 1 1 1 1 1 1 1 1 1 1 1 0 0 0 0 0 0 0 0 0 1 1 1 1
0 1 1 0 0 0 1 1 1 1 0 0 0 0 0 0 0 0 0 0 0 0 0 0 0 0 0 0 0 0 -0 -0 -0 -0 -0 -0 -0 -0 0 0 0 0 0
-0 -0 -0 -0 -0 -0 -0 -0 -0 -0 -0 -0 -0 0 0 0 0 -0 -0 -0 -0 -0 -0 -0 -0 -0 -1 -1 -1 -1 -1 -1 -1 -1 -1 -1 -1 -0 -0 -0 -0 -0 0
-1 -1 -1 -1 -1 -1 -1 -1 -1 -1 -1 -1 -0 -0 -0 -0 -0 -0 -1 -1 -1 -1 -1 -1 -1 -1 -1 -1 -1 -1 -1 -1 -1 -1 -1 -1 -1 -1 -1 -1 -0 -0 -0
-1 -1 -1 -1 -1 -1 -1 -1 -1 -1 -1 -1 -1 -1 -1 -1 -1 -1 -1 -1 -1 -2 -2 -2 -2 -2 -2 -2 -2 -2 -2 -2 -1 -1 -1 -1 -1 -1 -1 -1 -1 -1 -1
-2 -2 -2 -2 -2 -2 -2 -2 -2 -2 -2 -2 -2 -2 -2 -2 -2 -2 -2 -2 -2 -2 -2 -2 -2 -3 -3 -3 -3 -2 -2 -2 -2 -2 -1 -1 -1 -1 -1 -1 -1 -1 -1
-2 -2 -2 -3 -2 -3 -2 -2 -2 -2 -2 -2 -2 -2 -2 -2 -2 -2 -3 -3 -3 -3 -3 -3 -3 -3 -3 -3 -3 -2 -2 -2 -2 -2 -2 -2 -2 -2 -2 -2 -2 -2 -2

GEFSMW_850_meantemp_228.txt.gz
Temperature
14 13 13 13 13 13 12 12 12 12 12 12 12 12 12 12 12 11 11 11 11 11 11 11 11 11 11 11 11 10 10 10 10 10 10 10 10 10 10 9 10 10 10
13 13 13 13 13 12 12 12 12 12 12 12 12 12 11 11 11 11 11 11 11 11 10 10 10 10 10 10 10 10 10 10 9 8 8 8 8 9 9 9 9 9 9
13 12 12 12 12 12 12 12 12 12 11 11 11 11 11 11 10 11 11 10 10 10 10 10 10 10 10 10 9 9 9 9 9 8 7 7 7 7 8 8 8 8 8
12 12 12 12 12 12 12 12 11 11 11 11 10 10 10 10 10 10 10 10 10 10 9 9 9 9 9 9 9 9 8 8 8 8 7 7 6 6 6 7 7 7 7
12 12 12 12 12 12 12 11 11 11 10 10 10 10 10 10 10 9 9 9 9 9 9 9 9 9 9 8 8 8 8 8 8 7 7 6 6 6 6 6 6 6 7
11 12 12 11 11 11 11 11 10 10 10 10 9 9 9 9 9 9 9 9 9 9 9 8 8 8 8 8 8 8 7 7 7 7 6 6 6 5 5 5 5 5 6
10 11 10 10 10 10 10 10 10 10 9 9 9 9 8 8 8 8 8 8 8 8 8 8 8 8 8 7 7 7 7 7 6 6 6 6 5 5 5 5 5 5 5
9 10 10 10 10 10 10 9 9 9 9 9 8 8 8 8 8 8 8 8 8 7 7 7 7 7 7 7 7 7 6 6 6 6 5 5 5 5 5 4 4 4 4
8 9 9 9 9 9 9 9 9 9 8 8 8 8 7 7 7 7 7 7 7 7 7 7 7 7 7 7 6 6 6 6 6 5 5 5 5 5 4 4 4 4 3
7 8 8 8 8 8 8 8 8 8 8 8 7 7 7 7 7 7 7 6 6 6 6 6 6 6 6 6 6 6 6 5 5 5 5 5 4 4 4 4 4 4 3
6 7 7 7 7 8 7 7 7 7 7 7 7 7 6 6 6 6 6 6 6 6 6 6 6 6 6 6 5 5 5 5 5 5 4 4 4 4 4 4 4 3 3
6 6 6 6 6 7 7 7 7 7 6 6 6 6 6 6 6 6 6 6 5 5 5 5 5 5 5 5 5 5 5 5 4 4 4 4 4 4 4 3 3 3 3
5 5 5 5 6 6 6 6 6 6 6 6 5 5 5 5 5 5 5 5 5 5 5 5 5 5 5 5 5 5 4 4 4 4 4 4 3 3 3 3 3 3 3
4 5 5 5 5 5 5 5 5 5 5 5 5 5 5 5 5 5 5 4 4 5 4 4 4 4 4 4 4 4 4 4 4 3 3 3 3 3 3 3 3 3 3
4 4 4 4 4 4 4 4 4 4 4 4 4 4 4 4 4 4 4 4 4 4 4 4 4 4 4 4 4 3 3 3 3 3 3 3 3 2 2 2 2 2 2
3 3 3 3 3 4 4 4 4 4 4 4 4 4 4 4 4 4 4 4 3 3 3 3 3 3 3 3 3 3 3 3 3 3 3 2 2 2 2 2 2 2 2
3 3 3 3 3 3 3 3 3 3 3 3 3 3 3 3 3 3 3 3 3 3 3 3 2 3 3 2 2 2 2 2 2 2 2 2 2 2 2 2 2 2 1
2 2 2 2 2 2 2 3 3 3 3 3 3 2 2 2 2 3 3 2 2 2 2 2 2 2 2 2 2 2 2 2 2 1 1 1 1 1 1 1 1 1 1
2 2 2 2 2 2 2 2 2 2 2 2 2 2 2 2 2 2 2 2 2 2 1 1 1 1 1 1 1 1 1 1 1 1 1 1 1 1 0 0 0 0 0
1 1 1 1 1 1 1 1 1 1 1 1 1 1 1 1 1 1 1 1 1 1 1 1 1 1 1 1 1 0 0 0 -0 -0 0 -0 -0 -0 -0 -0 -0 -0 -0
1 1 1 1 1 1 1 1 1 1 1 1 1 1 1 1 1 1 1 0 0 0 0 0 0 0 0 0 -0 -0 -1 -1 -1 -1 -1 -1 -1 -1 -1 -1 -1 -1 -1
-0 -0 0 0 -0 -0 -0 0 0 0 0 0 0 0 0 0 0 0 0 -0 -0 -0 -0 -0 -0 -0 -1 -1 -1 -1 -1 -1 -1 -1 -1 -1 -1 -1 -1 -1 -1 -1 -1
-1 -1 -1 -1 -1 -1 -1 -1 -1 -1 -0 -0 -0 -0 -0 -0 -0 -0 -0 -0 -1 -1 -1 -1 -1 -1 -1 -1 -2 -2 -2 -2 -2 -2 -2 -2 -2 -2 -2 -2 -2 -2 -2
-1 -1 -1 -1 -1 -1 -1 -1 -1 -1 -1 -1 -1 -1 -1 -1 -1 -1 -1 -1 -1 -1 -2 -2 -2 -2 -2 -2 -2 -2 -2 -2 -2 -2 -2 -2 -2 -2 -2 -2 -2 -2 -2
-2 -2 -2 -2 -2 -2 -2 -2 -2 -2 -2 -2 -2 -2 -2 -2 -1 -1 -1 -2 -2 -2 -2 -3 -3 -3 -2 -2 -2 -3 -2 -2 -2 -2 -2 -2 -2 -2 -2 -2 -2 -2 -3
-2 -2 -2 -3 -2 -2 -2 -2 -2 -2 -2 -2 -2 -2 -2 -2 -2 -2 -2 -2 -3 -3 -3 -3 -3 -3 -3 -3 -3 -3 -3 -3 -3 -3 -3 -3 -3 -3 -3 -3 -3 -3 -3

GEFSMW_850_meantemp_234.txt.gz
Temperature
12 12 12 13 13 12 12 12 12 12 12 12 12 12 12 12 12 11 11 11 11 11 11 11 11 11 11 11 10 10 10 10 10 10 10 10 10 10 9 9 9 9 9
12 12 12 12 12 12 12 12 12 12 12 12 12 12 12 11 11 11 11 11 11 11 11 11 10 10 10 10 10 10 9 9 9 8 8 8 8 9 9 9 9 9 9
11 12 12 12 12 12 12 12 12 12 11 11 11 11 11 11 11 11 10 10 10 10 10 10 10 10 10 9 9 9 9 9 9 8 8 7 7 7 8 8 8 8 8
11 11 11 12 12 12 12 12 11 11 11 11 11 11 11 11 11 10 10 10 10 10 10 9 9 9 9 9 9 9 8 8 8 8 8 7 7 6 6 7 7 7 7
10 11 11 11 12 12 12 11 11 11 11 11 11 10 10 10 10 10 9 9 9 9 9 9 9 9 9 8 8 8 8 8 8 7 7 7 7 6 6 6 6 7 7
10 10 11 11 11 11 11 11 11 11 10 10 10 10 10 10 9 9 9 9 9 9 8 8 8 8 8 8 8 7 7 7 7 7 7 6 6 6 5 5 5 6 6
8 9 10 10 10 11 11 10 10 10 10 10 10 9 9 9 9 9 8 8 8 8 8 8 8 8 7 7 7 7 7 7 7 6 6 6 5 5 5 5 5 5 5
7 8 9 9 10 10 10 10 10 10 10 9 9 9 9 8 8 8 8 8 7 7 7 7 7 7 7 7 7 7 6 6 6 6 6 6 5 5 5 5 4 4 4
6 7 8 8 9 9 9 9 9 9 9 9 9 8 8 8 8 7 7 7 7 7 7 7 6 6 6 6 6 6 6 6 6 6 6 5 5 5 5 4 4 4 3
5 6 7 7 8 8 8 8 8 8 8 8 8 7 7 7 7 7 7 7 6 6 6 6 6 6 6 6 6 6 6 5 5 5 5 5 5 4 4 4 4 4 3
5 5 6 6 7 7 7 7 7 7 7 7 7 7 7 7 6 6 6 6 6 6 6 6 6 6 5 5 5 5 5 5 5 5 5 5 4 4 4 4 4 3 3
4 4 5 5 6 6 7 7 7 7 7 6 6 6 6 6 6 6 6 5 5 5 5 5 5 5 5 5 5 5 5 4 4 4 4 4 4 4 3 3 3 3 3
3 4 4 5 5 5 6 6 6 6 6 6 6 6 6 5 5 5 5 5 5 5 5 5 5 5 5 4 4 4 4 4 4 4 4 4 3 3 3 3 3 3 2
3 3 4 4 4 5 5 5 5 5 5 5 5 5 5 5 5 5 5 5 4 4 4 4 4 4 4 4 4 4 4 4 3 3 3 3 3 3 3 2 2 2 2
2 3 3 3 4 4 4 4 5 5 5 5 5 5 5 5 4 4 4 4 4 4 4 4 4 4 3 3 3 3 3 3 3 3 3 3 3 2 2 2 2 2 2
2 2 2 3 3 3 4 4 4 4 4 4 4 4 4 4 4 4 4 4 4 4 3 3 3 3 3 3 3 2 2 2 2 2 2 2 2 2 2 2 2 1 1
2 2 2 2 3 3 3 3 3 3 3 3 3 3 3 3 3 3 3 3 3 3 3 3 3 3 2 2 2 2 2 2 2 2 2 2 2 2 1 2 1 1 1
1 2 2 2 2 2 2 3 3 3 3 3 3 3 3 3 3 3 3 3 3 3 2 2 2 2 2 2 2 1 1 1 1 1 1 1 1 1 1 1 1 1 1
1 1 1 2 2 2 2 2 2 2 2 2 2 2 2 2 2 2 2 2 2 2 2 2 1 1 1 1 1 1 1 1 1 1 1 0 0 0 0 0 0 0 0
0 0 1 1 1 1 1 1 1 1 1 2 2 1 1 1 1 1 1 1 1 1 1 1 1 1 1 1 0 0 0 0 0 -0 -0 -0 -0 -0 -0 -0 -0 -0 -0
-0 -0 0 0 0 1 1 1 1 1 1 1 1 1 1 1 1 1 1 0 0 0 0 0 0 0 0 0 -0 -0 -1 -1 -1 -1 -1 -1 -1 -1 -1 -1 -1 -1 -1
-1 -1 -0 -0 -0 -0 0 0 0 0 0 0 0 0 0 -0 -0 0 0 -0 -0 -0 -0 -0 -0 -0 -0 -1 -1 -1 -1 -1 -1 -1 -1 -1 -1 -1 -1 -1 -2 -2 -2
-1 -1 -1 -1 -1 -1 -1 -1 -0 -0 -0 -0 -0 -0 -1 -1 -1 -1 -0 -1 -1 -1 -1 -1 -1 -1 -1 -1 -1 -2 -2 -2 -2 -2 -2 -2 -2 -2 -2 -2 -2 -2 -2
-2 -2 -1 -1 -1 -1 -1 -1 -1 -1 -1 -1 -1 -1 -1 -1 -1 -1 -1 -1 -1 -1 -2 -2 -2 -2 -2 -2 -2 -2 -2 -2 -2 -2 -2 -2 -2 -2 -2 -2 -2 -3 -3
-2 -2 -2 -2 -2 -2 -2 -2 -2 -2 -1 -1 -1 -1 -1 -1 -1 -1 -2 -2 -2 -2 -3 -3 -3 -3 -3 -3 -3 -2 -2 -2 -2 -2 -2 -2 -2 -3 -3 -3 -3 -3 -3
-3 -3 -3 -3 -3 -3 -2 -2 -2 -2 -2 -2 -2 -2 -2 -2 -2 -2 -2 -3 -3 -3 -3 -3 -3 -3 -3 -3 -3 -3 -3 -3 -3 -3 -3 -3 -3 -3 -3 -3 -3 -3 -3

GEFSMW_850_meantemp_240.txt.gz
Temperature
11 11 11 11 12 12 12 12 12 12 12 12 12 12 12 12 12 12 12 11 11 11 11 11 11 11 11 10 10 10 10 10 10 10 9 9 9 9 9 9 9 9 9
11 10 11 11 11 11 12 12 12 12 12 12 12 12 12 12 11 11 11 11 11 11 11 11 10 10 10 10 10 10 9 9 9 9 8 8 8 9 9 9 9 8 8
10 10 10 11 11 11 11 12 12 12 12 11 11 11 11 11 11 11 11 11 10 10 10 10 10 10 10 10 10 9 9 9 8 8 8 8 8 8 8 8 8 8 8
10 9 10 10 11 11 11 11 11 11 11 11 11 11 11 11 11 11 10 10 10 10 10 10 9 9 9 9 9 9 9 8 8 8 8 7 7 7 7 7 7 7 7
9 9 9 10 11 11 11 11 11 11 11 11 11 11 10 10 10 10 10 10 9 9 9 9 9 9 9 9 9 8 8 8 8 7 7 7 7 6 6 6 6 7 7
8 8 9 9 10 10 10 10 10 10 10 10 10 10 10 10 10 10 10 9 9 9 9 9 9 8 8 8 8 8 8 8 7 7 7 7 6 6 6 5 6 6 6
7 7 8 8 9 9 9 10 10 10 10 10 10 10 10 9 9 9 9 9 9 9 8 8 8 8 8 8 8 7 7 7 7 7 7 6 6 6 5 5 5 5 5
6 6 7 7 8 9 9 9 9 9 9 9 9 9 9 9 9 9 9 8 8 8 8 8 7 7 7 7 7 7 7 7 7 7 6 6 6 5 5 5 4 4 4
5 6 6 6 7 8 8 8 8 8 9 9 9 9 8 8 8 8 8 8 8 7 7 7 7 7 7 7 7 6 6 6 6 6 6 6 5 5 5 4 4 4 4
5 5 5 5 6 7 7 7 7 8 8 8 8 8 8 8 7 7 7 7 7 7 7 7 6 6 6 6 6 6 6 6 6 6 5 5 5 5 4 4 4 3 3
4 4 4 5 5 6 6 6 6 7 7 7 7 7 7 7 7 7 7 7 6 6 6 6 6 6 6 6 5 5 5 5 5 5 5 5 4 4 4 4 3 3 3
3 3 4 4 4 5 5 6 6 6 6 6 6 7 7 7 6 6 6 6 6 6 6 5 5 5 5 5 5 5 5 5 5 5 4 4 4 4 4 3 3 3 3
2 3 3 3 3 4 5 5 5 5 6 6 6 6 6 6 6 6 6 6 5 5 5 5 5 5 5 5 5 5 4 4 4 4 4 4 3 3 3 3 2 2 2
2 2 2 2 3 3 4 4 5 5 5 5 5 5 5 5 5 5 5 5 5 5 5 5 5 4 4 4 4 4 4 4 3 3 3 3 3 3 3 2 2 2 2
1 2 2 2 2 3 3 4 4 4 4 4 5 5 5 5 5 5 5 5 5 5 5 4 4 4 4 4 4 4 3 3 3 3 3 3 2 2 2 2 2 2 1
1 1 1 1 2 2 3 3 3 3 4 4 4 4 4 4 4 4 4 4 4 4 4 4 4 4 3 3 3 3 3 2 2 2 2 2 2 2 2 2 1 1 1
0 0 1 1 2 2 2 3 3 3 3 3 3 3 3 4 4 4 4 4 4 4 3 3 3 3 3 3 3 2 2 2 2 2 1 1 2 1 1 1 1 1 1
0 0 0 1 1 2 2 2 2 2 3 3 3 3 3 3 3 3 3 3 3 3 3 3 2 2 2 2 2 2 2 1 1 1 1 1 1 0 0 0 0 0 0
-0 -0 0 0 1 1 1 1 2 2 2 2 2 2 2 2 2 2 2 2 2 2 2 2 2 2 2 2 1 1 1 1 1 1 0 0 0 -0 -0 -0 -0 -0 -0
-0 -0 -0 0 0 0 1 1 1 1 1 1 1 1 1 1 1 2 2 2 2 1 1 1 1 1 1 1 1 0 0 -0 -0 -0 -0 -0 -1 -1 -1 -1 -1 -1 -1
-1 -1 -0 -0 -0 -0 -0 0 0 0 0 0 1 1 1 1 1 1 1 1 1 1 1 0 0 0 0 0 0 -0 -0 -1 -1 -1 -1 -1 -1 -1 -1 -1 -1 -1 -1
-1 -1 -1 -1 -1 -1 -1 -1 -1 -0 -0 -0 -0 0 0 0 0 0 0 0 0 -0 -0 -0 -0 -0 -0 -0 -1 -1 -1 -1 -1 -1 -1 -2 -1 -1 -1 -1 -1 -1 -1
-2 -2 -2 -1 -1 -1 -1 -1 -1 -1 -1 -1 -1 -1 -1 -0 -0 -0 -0 -1 -1 -1 -1 -1 -1 -1 -1 -1 -1 -1 -1 -1 -2 -2 -2 -2 -2 -2 -2 -2 -2 -2 -2
-2 -2 -2 -2 -2 -2 -2 -2 -1 -2 -1 -1 -1 -1 -1 -1 -1 -1 -1 -1 -1 -2 -2 -2 -2 -2 -2 -2 -2 -2 -2 -2 -2 -2 -2 -2 -2 -2 -2 -2 -2 -2 -2
-3 -3 -3 -2 -2 -2 -2 -2 -2 -2 -2 -2 -2 -2 -2 -2 -2 -2 -2 -2 -2 -2 -2 -2 -2 -3 -2 -2 -2 -2 -2 -2 -2 -2 -2 -2 -2 -2 -2 -2 -3 -3 -3
-3 -3 -3 -3 -3 -3 -3 -3 -3 -3 -2 -2 -2 -2 -2 -2 -2 -2 -2 -2 -3 -3 -3 -3 -3 -3 -3 -3 -3 -3 -3 -3 -3 -3 -3 -3 -3 -3 -3 -3 -3 -3 -3

GEFSMW_850_meantemp_246.txt.gz
Temperature
13 13 13 12 12 12 12 12 12 12 12 12 12 12 12 12 12 12 12 12 12 12 12 12 11 11 11 11 11 11 10 10 10 10 10 10 10 10 10 9 9 9 9
13 13 12 12 12 12 12 12 12 12 12 12 12 12 12 12 12 12 12 12 12 11 11 11 11 11 11 10 10 10 10 10 10 9 9 9 9 9 9 9 9 9 9
13 12 12 11 11 11 11 12 11 11 11 11 11 11 11 11 11 11 11 11 11 11 11 11 11 10 10 10 10 10 10 9 9 9 8 8 8 8 9 9 9 8 8
12 12 11 11 11 11 11 11 11 11 11 11 11 11 11 11 11 11 11 11 11 11 11 10 10 10 10 10 9 9 9 9 9 8 8 8 8 7 7 8 8 8 8
11 11 10 10 10 10 10 10 10 10 10 10 10 11 11 11 11 11 11 10 10 10 10 10 10 10 9 9 9 9 8 8 8 8 8 8 7 7 6 6 7 7 7
11 10 10 10 10 10 10 10 10 10 10 10 10 10 10 10 10 10 10 10 10 10 10 10 9 9 9 9 9 8 8 8 8 7 7 7 7 7 6 6 6 6 7
10 9 9 9 9 9 9 9 9 9 9 9 9 10 9 10 10 10 10 9 9 9 9 9 9 9 9 9 8 8 8 7 7 7 7 7 6 6 6 5 5 5 5
9 9 9 8 8 8 8 8 8 9 8 9 9 9 9 9 9 9 9 9 9 9 9 9 9 8 8 8 8 7 7 7 7 7 7 6 6 6 5 5 4 4 4
8 8 8 8 7 7 8 8 8 8 8 8 8 8 8 8 8 8 8 8 8 8 8 8 8 8 8 7 7 7 7 7 6 6 6 6 6 5 5 4 4 4 3
7 7 7 7 7 7 7 7 7 7 7 7 7 7 7 7 8 8 8 8 8 8 8 7 7 7 7 7 7 7 6 6 6 6 6 5 5 5 5 4 4 3 3
6 6 6 6 6 6 6 6 6 7 7 7 7 7 7 7 7 7 7 7 7 7 7 7 7 7 7 6 6 6 6 6 5 5 5 5 5 4 4 4 4 3 3
6 6 6 6 5 5 5 5 6 6 6 6 6 6 7 7 7 7 7 7 6 6 6 6 6 6 6 6 6 6 5 5 5 5 5 5 4 4 4 4 3 3 3
5 5 5 5 5 5 5 5 5 5 6 6 6 6 6 6 6 6 6 6 6 6 6 6 6 6 5 5 5 5 5 5 5 4 4 4 4 4 3 3 3 3 2
4 4 4 4 4 4 4 4 4 5 5 5 5 5 6 6 6 6 6 5 5 5 5 5 5 5 5 5 5 5 4 4 4 4 3 3 3 3 3 2 2 2 2
3 3 3 3 3 3 3 3 4 4 4 5 5 5 5 5 5 5 5 5 5 5 5 5 5 5 5 4 4 4 4 3 3 3 3 3 3 2 2 2 2 2 1
2 2 2 2 2 2 2 3 3 3 3 4 4 4 4 4 4 4 4 4 4 4 4 4 4 4 4 4 3 3 3 3 3 2 2 2 2 2 2 1 1 1 1
2 2 2 1 1 1 2 2 2 2 3 3 3 3 4 4 4 4 4 4 4 4 4 4 4 4 4 3 3 3 2 2 2 2 2 1 1 1 1 1 1 1 1
1 1 1 1 1 1 1 1 2 2 2 2 3 3 3 3 3 3 3 3 3 3 3 3 3 3 3 3 2 2 2 2 2 1 1 1 1 1 1 0 0 0 0
1 1 1 1 1 1 1 1 1 1 2 2 2 2 2 2 2 2 2 2 2 2 2 2 2 2 2 2 2 2 1 1 1 1 1 0 0 0 0 0 0 0 -0
0 0 0 0 0 0 0 1 1 1 1 1 1 1 1 2 2 2 2 2 2 2 2 2 2 2 1 1 1 1 1 1 1 0 0 -0 -0 -0 -0 -0 -0 -0 -0
-0 -0 -0 -0 -0 -0 -0 0 0 0 0 1 1 1 1 1 1 1 1 1 1 1 1 1 1 1 1 1 0 0 0 0 -0 -0 -0 -1 -1 -1 -1 -1 -1 -1 -1
-1 -1 -1 -1 -1 -1 -0 -0 -0 -0 -0 0 0 0 0 0 0 0 0 0 0 1 1 0 0 0 0 -0 -0 -0 -0 -1 -1 -1 -1 -1 -1 -1 -1 -1 -1 -1 -1
-2 -2 -1 -1 -1 -1 -1 -1 -1 -1 -1 -1 -0 -0 -0 -0 -1 -0 -0 -0 -0 -0 -0 -0 -0 -0 -1 -1 -1 -1 -1 -1 -1 -1 -1 -1 -1 -1 -1 -1 -2 -2 -2
-2 -2 -2 -2 -2 -2 -2 -2 -2 -1 -1 -1 -1 -1 -1 -1 -1 -1 -1 -1 -1 -1 -1 -1 -1 -1 -1 -1 -1 -1 -1 -2 -2 -2 -2 -2 -2 -2 -2 -2 -2 -2 -2
-3 -3 -3 -3 -3 -3 -3 -2 -2 -2 -2 -2 -2 -2 -2 -2 -2 -2 -2 -2 -2 -2 -2 -2 -2 -2 -2 -2 -2 -2 -2 -2 -2 -2 -2 -2 -2 -2 -2 -2 -2 -2 -2
-3 -3 -3 -3 -3 -3 -3 -3 -3 -3 -3 -3 -3 -3 -3 -3 -3 -2 -2 -2 -2 -2 -2 -2 -2 -2 -2 -2 -2 -2 -2 -2 -3 -3 -3 -3 -3 -3 -3 -3 -3 -3 -3

GEFSMW_850_meantemp_252.txt.gz
Temperature
13 13 13 13 13 13 13 13 13 13 13 13 13 13 13 13 13 13 13 13 13 12 12 12 12 12 11 11 11 11 11 11 10 10 10 10 10 10 10 9 9 9 9
12 12 13 13 13 13 13 12 12 12 12 12 13 12 12 12 12 12 12 12 12 12 12 12 12 11 11 11 11 11 10 10 10 10 10 9 9 9 9 9 9 9 9
12 12 12 12 12 12 12 12 12 12 12 12 12 12 12 11 11 11 12 12 12 12 11 11 11 11 11 11 10 10 10 10 9 9 9 8 8 8 8 8 8 8 8
11 11 12 12 12 12 12 12 12 12 12 11 12 12 11 11 11 11 11 11 11 11 11 11 11 10 10 10 10 10 10 9 9 9 8 8 8 7 7 8 8 8 8
11 11 11 11 11 11 11 11 11 11 11 11 11 11 11 11 11 11 11 11 11 10 10 10 10 10 10 10 10 9 9 9 8 8 8 8 7 7 7 7 7 7 7
10 10 10 10 11 11 11 11 10 11 11 11 11 10 11 11 10 10 10 10 10 10 10 10 10 10 9 9 9 9 9 8 8 8 7 7 7 7 6 6 6 6 6
9 9 10 10 10 10 10 10 10 10 10 10 10 10 10 10 10 10 10 10 10 10 10 9 9 9 9 9 9 8 8 8 8 7 7 7 6 6 6 6 5 5 6
8 9 9 9 9 9 9 9 9 9 9 9 9 9 9 9 9 9 9 9 9 9 9 9 9 9 8 8 8 8 8 8 7 7 7 6 6 6 6 5 5 4 4
8 8 8 9 9 9 9 9 9 9 8 9 9 8 8 8 8 9 8 8 8 8 8 8 8 8 8 8 8 8 7 7 7 7 6 6 6 6 5 5 4 4 3
7 7 7 8 8 8 8 8 8 8 8 8 8 8 8 8 8 8 8 8 8 8 8 8 8 7 7 7 7 7 7 7 6 6 6 6 6 5 5 5 4 4 3
6 6 7 7 7 7 8 8 8 8 7 7 7 7 7 7 7 7 7 7 7 7 7 7 7 7 7 7 7 7 6 6 6 6 5 5 5 5 5 4 4 3 3
5 6 6 6 7 7 7 7 7 7 7 7 7 7 7 7 7 7 7 7 7 6 6 6 6 6 6 6 6 6 6 6 5 5 5 5 4 4 4 4 3 3 2
4 5 5 5 6 6 6 6 6 6 6 6 6 6 6 6 6 6 6 6 6 6 6 6 6 6 6 6 6 6 5 5 5 4 4 4 4 4 3 3 2 2 2
4 4 4 5 5 5 5 5 5 6 5 5 5 6 6 6 6 6 6 6 6 5 5 5 5 5 5 5 5 5 5 5 4 4 4 3 3 3 3 2 2 2 2
3 3 3 4 4 4 5 5 5 5 5 5 5 5 5 5 5 5 5 5 5 5 5 5 5 5 5 5 4 4 4 4 4 4 3 3 3 2 2 2 2 2 2
2 2 3 3 3 4 4 4 4 4 4 4 4 4 4 4 4 4 4 4 4 4 4 4 4 4 4 4 4 4 3 3 3 3 3 3 2 2 2 2 2 1 1
2 2 2 2 3 3 3 3 3 3 3 3 3 3 4 4 4 4 4 4 4 4 4 4 4 4 4 3 3 3 3 3 3 2 2 2 2 2 2 2 1 1 1
1 1 1 2 2 2 2 2 2 2 2 2 3 3 3 3 3 3 3 3 3 3 3 3 3 3 3 2 2 2 2 2 2 2 2 1 1 1 1 1 1 1 1
0 1 1 1 1 1 2 2 2 2 2 2 2 2 2 2 2 2 2 2 2 2 2 2 2 2 2 2 2 1 1 1 1 1 1 1 1 1 1 0 0 0 0
-0 0 0 1 1 1 1 1 1 1 1 1 1 1 1 2 2 2 2 1 2 1 1 1 1 1 1 1 1 1 1 1 1 1 1 0 0 0 -0 -0 -0 -0 -0
-1 -0 0 0 0 0 0 0 0 0 0 0 0 1 1 1 1 1 1 1 1 1 1 1 1 1 0 0 0 0 0 0 0 0 0 -0 -0 -0 -0 -1 -1 -1 -1
-1 -1 -0 -0 -0 -0 -0 -0 -1 -0 -1 -0 -0 -0 0 0 0 -0 -0 -0 -0 -0 -0 -0 -0 -0 -0 -0 -0 -0 -0 -0 -0 -0 -1 -1 -1 -1 -1 -1 -1 -1 -2
-1 -1 -1 -1 -1 -1 -1 -1 -1 -1 -1 -1 -1 -1 -1 -1 -1 -1 -1 -1 -1 -1 -1 -1 -1 -1 -1 -1 -1 -1 -1 -1 -1 -1 -1 -1 -1 -1 -1 -1 -1 -2 -2
-2 -2 -2 -2 -2 -2 -2 -2 -2 -2 -2 -1 -1 -1 -1 -1 -1 -1 -1 -1 -1 -1 -1 -2 -1 -1 -1 -1 -1 -1 -1 -1 -1 -2 -2 -2 -2 -2 -2 -2 -2 -2 -2
-3 -2 -2 -2 -2 -2 -2 -2 -2 -2 -2 -2 -2 -2 -2 -2 -2 -2 -2 -2 -2 -2 -2 -2 -2 -2 -2 -2 -2 -2 -2 -2 -2 -2 -2 -2 -2 -2 -2 -2 -2 -2 -3
-3 -3 -3 -3 -3 -3 -3 -3 -3 -3 -3 -3 -3 -3 -3 -3 -3 -3 -3 -3 -3 -3 -3 -3 -3 -3 -3 -3 -3 -3 -3 -3 -3 -3 -3 -3 -3 -3 -3 -3 -3 -3 -3

GEFSMW_850_meantemp_258.txt.gz
Temperature
12 12 12 13 13 13 13 13 13 13 13 13 13 13 13 12 12 12 12 12 12 12 12 12 12 12 11 11 11 11 11 10 10 10 10 10 9 9 9 9 9 9 9
11 12 12 12 12 12 13 12 12 12 12 12 12 12 12 12 12 12 11 11 11 11 11 11 11 11 11 11 10 10 10 10 10 9 9 9 9 9 9 9 8 8 8
10 11 11 12 12 12 12 12 12 12 12 12 12 12 12 11 11 11 11 11 11 11 11 11 11 10 10 10 10 10 10 10 9 9 9 8 8 8 8 8 8 8 8
10 10 11 11 12 12 12 12 12 12 12 12 11 11 11 11 11 11 10 10 10 10 10 10 10 10 10 10 10 9 9 9 9 9 8 8 8 8 7 8 8 8 8
9 10 10 11 11 11 11 11 11 11 11 11 11 11 11 11 10 10 10 10 10 10 10 10 10 10 9 9 9 9 9 9 8 8 8 8 7 7 7 7 7 8 8
9 9 10 10 11 11 11 11 11 11 11 11 11 10 10 10 10 10 10 10 9 9 9 9 9 9 9 9 9 9 8 8 8 8 7 7 7 7 6 6 6 6 7
8 9 9 10 10 10 10 10 10 10 10 10 10 10 10 10 9 9 9 9 9 9 9 9 9 9 9 8 8 8 8 8 8 7 7 7 6 6 6 5 5 5 6
7 8 8 9 9 10 10 10 10 10 10 9 9 9 9 9 9 9 9 9 9 9 9 8 8 8 8 8 8 8 8 7 7 7 7 6 6 6 5 5 4 4 4
7 7 8 8 9 9 9 9 9 9 9 9 9 9 8 8 8 8 8 8 8 8 8 8 8 8 8 7 7 7 7 7 7 7 6 6 6 5 5 5 4 4 3
6 6 7 7 8 8 9 9 9 9 9 8 8 8 8 8 8 7 7 7 7 7 7 7 7 7 7 7 7 7 7 6 6 6 6 6 6 5 5 5 4 3 3
5 5 6 7 7 8 8 8 8 8 8 8 8 7 7 7 7 7 7 7 7 7 7 7 7 7 7 6 6 6 6 6 6 6 5 5 5 5 5 4 4 3 3
4 5 5 6 6 7 7 7 7 7 7 7 7 7 7 7 7 6 6 6 6 6 6 6 6 6 6 6 6 6 5 5 5 5 5 5 5 4 4 4 4 3 3
3 4 4 5 5 6 6 6 6 6 6 6 6 6 6 6 6 6 6 6 6 6 6 6 6 5 5 5 5 5 5 5 5 5 4 4 4 4 4 3 3 3 3
3 3 4 4 5 5 5 5 6 6 6 6 6 5 5 5 5 5 5 5 5 5 5 5 5 5 5 5 5 5 4 4 4 4 4 4 3 3 3 3 3 3 2
2 3 3 3 4 4 4 5 5 5 5 5 5 5 5 5 5 5 5 5 5 5 5 4 4 4 4 4 4 4 4 4 4 3 3 3 3 3 2 2 2 2 2
1 2 2 3 3 3 4 4 4 4 4 4 4 4 4 4 4 4 4 4 4 4 4 4 4 4 4 4 3 3 3 3 3 3 3 3 3 2 2 2 2 2 1
1 1 2 2 2 3 3 3 4 4 4 4 4 4 4 4 4 4 4 4 4 4 3 3 3 3 3 3 3 2 2 2 2 2 2 2 2 2 2 2 2 1 1
0 1 1 1 2 2 2 3 3 3 3 3 3 3 3 3 3 3 3 3 3 3 3 3 3 3 2 2 2 2 2 2 2 2 2 1 1 1 1 1 1 1 1
0 0 1 1 1 1 2 2 2 2 2 2 3 2 2 2 2 3 2 2 2 2 2 2 2 2 2 2 1 1 1 1 1 1 1 1 1 1 0 0 0 0 0
-0 -0 0 0 0 1 1 1 1 1 2 2 2 2 2 2 2 2 2 2 1 1 1 1 1 1 1 1 1 0 0 0 0 0 0 0 0 -0 -0 -0 -0 -0 -0
-1 -1 -0 -0 -0 -0 0 0 1 1 1 1 1 1 1 1 1 1 1 1 1 1 1 1 1 0 0 0 0 -0 -0 -1 -1 -0 -0 -0 -0 -0 -1 -1 -1 -1 -1
-1 -1 -1 -1 -1 -1 -0 -0 -0 -0 -0 -0 0 0 0 0 0 -0 -0 -0 -0 0 -0 -0 -0 -0 -0 -1 -1 -1 -1 -1 -1 -1 -1 -1 -1 -1 -1 -1 -1 -2 -2
-2 -2 -1 -1 -1 -1 -1 -1 -1 -1 -1 -1 -1 -1 -1 -1 -1 -1 -1 -1 -1 -1 -1 -1 -1 -1 -1 -1 -1 -1 -1 -1 -1 -1 -1 -1 -1 -1 -1 -2 -2 -2 -2
-2 -2 -2 -2 -2 -2 -2 -1 -1 -1 -1 -1 -1 -1 -1 -1 -1 -1 -1 -1 -1 -2 -2 -2 -2 -2 -2 -2 -2 -2 -2 -2 -2 -2 -2 -2 -2 -2 -2 -2 -2 -2 -2
-3 -3 -2 -2 -2 -2 -2 -2 -2 -2 -2 -2 -2 -2 -2 -2 -2 -2 -2 -2 -2 -2 -2 -2 -2 -2 -2 -2 -2 -2 -2 -2 -2 -3 -2 -2 -2 -2 -2 -2 -3 -3 -3
-3 -3 -3 -3 -3 -3 -3 -3 -3 -3 -3 -3 -3 -3 -3 -3 -3 -2 -3 -3 -3 -3 -3 -3 -3 -3 -3 -3 -3 -3 -3 -3 -3 -3 -3 -3 -3 -3 -3 -3 -3 -3 -3

GEFSMW_850_meantemp_264.txt.gz
Temperature
11 11 11 11 12 12 12 12 12 12 12 12 12 12 12 12 12 12 12 12 12 12 12 11 11 11 11 11 11 11 10 10 10 10 9 9 9 9 9 9 9 9 8
10 10 11 11 11 12 12 12 12 12 12 12 12 12 12 11 11 11 11 11 11 11 11 11 11 11 11 10 10 10 10 10 9 9 9 9 9 9 9 9 9 8 8
10 10 10 10 11 11 11 11 11 11 11 11 11 11 11 11 11 11 11 11 11 11 11 10 10 10 10 10 10 10 10 9 9 9 8 8 9 8 8 8 8 8 8
9 9 10 10 10 11 11 11 11 11 11 11 11 11 11 11 11 11 11 10 10 10 10 10 10 10 10 9 9 9 9 9 9 9 8 8 8 7 7 7 7 7 7
9 9 9 9 10 10 10 10 11 11 11 11 11 11 10 10 10 10 10 10 10 10 10 10 9 9 9 9 9 9 9 8 8 8 8 8 7 7 6 7 7 7 7
8 8 9 9 9 9 10 10 10 10 10 10 10 10 10 10 10 9 10 9 9 9 9 9 9 9 9 9 9 8 8 8 8 8 7 7 7 6 6 6 6 6 6
7 8 8 8 9 9 9 9 9 10 10 10 10 10 10 9 9 9 9 9 9 9 9 9 9 9 9 8 8 8 8 8 8 7 7 7 6 6 6 5 5 5 5
6 7 7 8 8 8 9 9 9 9 9 9 9 9 9 9 9 9 9 9 9 8 8 8 8 8 8 8 8 8 8 7 7 7 7 6 6 6 6 5 5 4 4
6 6 7 7 8 8 8 8 9 9 9 9 9 9 8 8 8 8 8 8 8 8 8 8 8 8 8 7 7 7 7 7 7 6 6 6 6 5 5 5 4 4 3
5 5 6 6 7 7 8 8 8 8 8 8 8 8 8 8 8 8 8 8 8 8 7 7 7 7 7 7 7 7 7 7 6 6 6 6 5 5 5 5 4 4 3
4 4 5 6 6 6 7 7 7 8 8 8 8 8 8 7 7 7 7 7 7 7 7 7 7 7 6 6 6 6 6 6 6 6 5 5 5 5 4 4 4 4 3
3 4 4 5 5 6 6 6 7 7 7 7 7 7 7 7 7 7 7 7 7 7 6 6 6 6 6 6 6 6 6 5 5 5 5 5 4 4 4 4 3 3 3
3 3 4 4 5 5 5 6 6 6 6 6 6 6 6 6 6 6 6 6 6 6 6 6 6 6 6 5 5 5 5 5 5 4 4 4 4 3 3 3 3 3 2
2 3 3 3 4 4 5 5 5 5 5 6 6 6 6 6 6 6 6 6 5 5 5 5 5 5 5 5 5 4 4 4 4 4 4 3 3 3 3 3 2 2 2
2 2 2 3 3 3 4 4 4 5 5 5 5 5 5 5 5 5 5 5 5 5 5 5 5 4 4 4 4 4 4 4 3 3 3 3 3 3 2 2 2 2 2
1 1 2 2 3 3 3 3 4 4 4 4 4 4 4 4 4 4 4 4 4 4 4 4 4 4 4 4 4 3 3 3 3 3 3 2 2 2 2 2 2 2 1
0 1 1 2 2 2 2 3 3 3 3 3 4 4 4 4 4 4 4 4 4 4 4 4 3 3 3 3 3 3 3 2 2 2 2 2 2 1 1 1 1 1 1
-0 0 1 1 1 2 2 2 2 2 3 3 3 3 3 3 3 3 3 3 3 3 3 3 3 3 3 3 2 2 2 2 2 2 1 1 1 1 1 1 1 1 1
-0 -0 0 1 1 1 1 2 2 2 2 2 2 2 2 2 2 2 2 2 2 2 2 2 2 2 2 2 2 2 1 1 1 1 1 0 0 0 0 0 0 0 0
-1 -0 0 0 1 1 1 1 1 1 1 1 1 2 2 2 2 2 2 2 2 1 1 1 1 1 1 1 1 1 1 0 0 0 -0 -0 -0 -0 -0 -0 -0 -0 -0
-1 -1 -0 -0 -0 -0 -0 0 0 0 1 1 1 1 1 1 1 1 1 1 1 1 0 1 1 1 1 1 0 0 -0 -0 -0 -0 -1 -1 -1 -1 -1 -1 -1 -1 -1
-2 -1 -1 -1 -1 -1 -1 -0 -0 -0 -0 0 0 0 0 0 0 0 0 0 0 0 -0 -0 -0 -0 -0 -0 -0 -1 -1 -1 -1 -1 -1 -1 -1 -1 -1 -1 -1 -2 -2
-2 -2 -2 -1 -1 -1 -1 -1 -1 -1 -1 -0 -0 -0 -0 -0 -0 -0 -0 -0 -1 -1 -1 -1 -1 -1 -1 -1 -1 -1 -1 -1 -2 -2 -1 -1 -1 -1 -1 -2 -2 -2 -2
-3 -2 -2 -2 -2 -2 -2 -1 -1 -1 -1 -1 -1 -1 -1 -1 -1 -1 -1 -1 -1 -1 -1 -1 -1 -1 -2 -2 -2 -2 -2 -2 -2 -2 -2 -2 -2 -2 -2 -2 -2 -2 -3
-3 -3 -2 -2 -2 -2 -2 -2 -2 -2 -2 -2 -2 -2 -2 -2 -2 -2 -2 -2 -2 -2 -2 -2 -2 -2 -2 -2 -2 -2 -2 -2 -2 -2 -3 -3 -3 -3 -3 -3 -3 -3 -3
-3 -3 -3 -3 -3 -3 -3 -2 -3 -3 -3 -2 -2 -2 -2 -2 -3 -2 -3 -2 -2 -2 -2 -2 -2 -2 -3 -3 -3 -3 -3 -3 -3 -3 -3 -3 -3 -3 -3 -3 -3 -3 -3

GEFSMW_850_meantemp_270.txt.gz
Temperature
12 12 12 12 12 12 12 12 12 12 12 12 12 12 12 12 12 12 12 12 12 12 12 12 12 12 12 11 11 11 11 11 10 10 10 10 9 10 9 9 9 9 9
11 11 11 11 11 11 11 12 12 12 12 12 12 12 11 11 11 11 11 11 11 11 11 11 11 11 11 11 11 11 10 10 10 10 9 9 9 9 9 9 9 8 8
11 11 11 11 11 11 11 11 11 11 11 11 11 11 11 11 11 11 11 11 11 11 11 11 11 11 11 10 10 10 10 10 9 9 9 8 8 8 8 8 8 8 8
11 10 10 10 10 11 11 11 11 11 11 11 11 11 11 10 10 10 10 10 10 10 10 10 10 10 10 10 10 10 10 9 9 9 9 8 8 8 8 8 7 7 7
10 9 9 10 10 10 10 10 10 10 10 11 11 10 10 10 10 10 10 10 10 10 10 10 10 10 10 9 9 9 9 9 9 9 8 8 8 8 7 7 7 7 7
9 9 9 9 9 9 10 10 10 10 10 10 10 10 10 10 9 9 9 9 9 9 9 9 9 9 9 9 9 9 9 9 8 8 8 8 7 7 7 6 6 6 7
8 8 8 8 8 9 9 9 9 9 9 9 9 10 10 10 9 9 9 9 9 9 9 9 9 9 9 9 8 8 8 8 8 8 8 7 7 7 6 6 6 6 6
8 8 8 8 8 8 8 8 9 8 9 9 9 9 9 9 9 9 9 9 9 9 9 9 9 8 8 8 8 8 8 8 8 7 7 7 6 6 6 6 5 5 5
7 7 7 7 7 7 7 8 8 8 8 8 9 9 9 9 8 8 9 9 9 9 8 8 8 8 8 8 7 7 7 7 7 7 7 6 6 6 5 5 5 4 4
6 6 6 6 7 7 7 7 7 7 8 8 8 8 8 8 8 8 8 8 8 8 8 8 8 7 7 7 7 7 7 6 6 6 6 6 6 5 5 5 4 4 3
5 5 6 6 6 6 6 7 7 7 7 7 7 7 7 7 7 7 7 7 7 7 7 7 7 7 7 7 7 7 6 6 6 6 6 5 5 5 4 4 4 3 3
5 5 5 5 5 6 6 6 6 6 6 7 7 7 7 7 7 7 7 7 7 7 7 7 6 6 6 6 6 6 6 6 5 5 5 5 4 4 4 4 3 3 3
4 4 4 4 5 5 5 5 5 6 6 6 6 6 6 6 6 7 6 6 6 6 6 6 6 6 6 6 5 5 5 5 5 5 4 4 4 4 3 3 3 3 2
4 3 4 4 4 4 4 4 5 5 5 5 5 5 5 6 6 6 6 6 6 6 6 6 5 5 5 5 5 5 4 4 4 4 4 4 4 3 3 3 2 2 2
3 3 3 3 3 3 4 4 4 4 4 4 4 5 5 5 5 5 5 5 5 5 5 5 5 5 4 4 4 4 4 4 4 4 4 3 3 3 2 2 2 2 2
2 2 2 2 2 3 3 3 3 3 4 4 4 4 4 4 4 4 4 4 4 4 4 4 4 4 4 4 4 3 3 3 3 3 3 3 3 2 2 2 1 1 1
1 1 1 1 2 2 2 2 3 3 3 3 3 3 3 3 4 4 4 4 4 4 4 4 3 3 3 3 3 3 3 3 3 3 2 2 2 2 2 1 1 1 0
1 1 1 1 1 2 2 2 2 2 2 2 2 3 3 3 3 3 3 3 3 3 3 3 3 3 3 3 2 2 2 2 2 2 2 2 1 1 1 1 1 0 0
0 1 1 1 1 1 1 2 2 2 2 2 2 2 2 2 2 2 2 2 2 2 2 2 2 2 2 2 2 2 2 2 2 1 1 1 1 1 0 0 0 0 0
0 0 0 0 0 1 1 1 1 1 1 1 1 1 2 2 2 2 2 2 2 2 2 1 2 1 1 1 1 1 1 1 1 1 1 0 0 0 -0 -0 -0 -0 -0
-0 -1 -0 -0 -0 -0 0 0 0 1 1 1 1 1 1 1 1 1 1 1 1 1 1 1 1 1 1 1 1 1 1 1 0 0 -0 -0 -0 -0 -1 -1 -1 -1 -1
-1 -1 -1 -1 -1 -1 -0 -0 -0 0 0 1 1 1 1 1 0 0 0 0 0 0 0 0 0 0 0 0 0 0 0 -0 -0 -0 -1 -1 -1 -1 -1 -1 -1 -1 -2
-2 -2 -2 -1 -1 -1 -1 -1 -1 -0 0 0 0 0 0 0 -0 -0 -0 -0 -0 -0 -0 -0 -0 -0 -0 -0 -0 -0 -1 -1 -1 -1 -1 -1 -1 -1 -1 -2 -2 -2 -2
-2 -2 -2 -2 -2 -2 -2 -1 -1 -1 -0 -0 -0 -0 -1 -1 -1 -1 -1 -1 -1 -0 -1 -1 -1 -1 -1 -1 -1 -1 -1 -1 -1 -1 -2 -2 -2 -2 -2 -2 -2 -2 -3
-3 -3 -2 -2 -2 -2 -2 -2 -1 -1 -1 -1 -1 -1 -1 -1 -1 -1 -1 -1 -1 -1 -1 -1 -1 -1 -1 -1 -1 -2 -2 -2 -2 -2 -2 -2 -2 -2 -2 -2 -3 -3 -3
-3 -3 -3 -3 -2 -2 -2 -2 -2 -2 -2 -2 -2 -2 -2 -2 -2 -2 -2 -2 -2 -2 -2 -1 -2 -2 -2 -2 -2 -2 -2 -2 -2 -2 -2 -2 -3 -3 -3 -3 -3 -3 -3